L'INFERNALE 2013 - 08/06/2013

12 Km


Pl Do. Nom - Surname Prénom - Name S-Cat /cat Club - Team TEMPS - Time Km/h /sx
1 562 DAUMAS ROMAIN MSE 1 RÉGION AUVERGNE 3 01:05:13 11,0 1
2 2031 ZAHER KARIM MSE 2 TRIATHLON ACADEMIE MONTLUCON 01:08:55 10,4 2
3 367 CARPE OLIVIER MV1 1   01:08:55 10,4 3
4 288 BOURDIN MICKAEL MSE 3   01:09:05 10,4 4
5 960 GRANGER OLIVIER MSE 4   01:09:55 10,3 5
6 1542 PERRET NICOLAS MV1 2 TRIATHLON ACADEMIE MONTLUCON 01:09:57 10,3 6
7 1735 RODTS NICOLAS MSE 5 TRIATHLON ACADEMIE MONTLUCON 01:09:58 10,3 7
8 855 GANGLOFF PASCAL MV1 3   01:10:00 10,3 8
9 804 FOUBERT PHILIPPE MSE 6   01:11:25 10,1 9
10 1862 ST GEORGE BEAU MSE 7   01:13:03 9,9 10
11 1211 LEBLEU PASCAL MV1 4   01:13:18 9,8 11
12 1093 JEOFFROY ALEXANDRE MSE 8   01:13:51 9,7 12
13 1673 RAPIN JEAN CHRISTOPHE MSE 9   01:14:18 9,7 13
14 90 BARBIER ANTOINE MJU 1   01:14:38 9,6 14
15 1171 LANCEREAU GAÊTAN MJU 2   01:15:00 9,6 15
16 117 BAUCHET ANTOINE MSE 10   01:15:34 9,5 16
17 560 DAUDEL LAURENT MSE 11   01:15:39 9,5 17
18 654 DOBIGNY SERODY FREDERIC MSE 12 LES RANGERS DU NUCLÉAIRE 01:16:00 9,5 18
19 472 CHOUZET NICOLAS MSE 13   01:16:00 9,5 19
20 1428 MOUETTE LANDRY FSE 1   01:16:36 9,4 1
21 1407 MONTAGUT PAUL MSE 14   01:16:37 9,4 20
22 694 DUFOUR KILLIAN MES 1   01:16:47 9,4 21
23 883 GAY YVAN MSE 15   01:16:48 9,4 22
24 19 ALLIGIER JEAN PHILIPPE MSE 16   01:17:35 9,3 23
25 1521 PECHER JEREMY MSE 17   01:18:01 9,2 24
26 1415 MONTOY THIBAULT MSE 18   01:18:05 9,2 25
27 1678 RAYER LUDOVIC MSE 19   01:18:07 9,2 26
28 244 BOMBARDO GRÉGORY MSE 20   01:18:12 9,2 27
29 1628 POULET RICHARD MV1 5   01:18:19 9,2 28
30 1660 QUI ALPHONCE MSE 21   01:18:35 9,2 29
31 1240 LERASLE JULIEN MSE 22   01:18:46 9,1 30
32 12 ALI CHIKH ARESKI MV2 1 ECUREUILS ELOYSIENS 01:19:38 9,0 31
33 1069 IMBERT JULIEN MSE 23   01:19:40 9,0 32
34 1345 MATHIAS AYMERIC MES 2   01:19:53 9,0 33
35 1468 NOTIN DAVID MSE 24   01:19:54 9,0 34
36 1752 ROUDEL VINCENT MSE 25   01:19:56 9,0 35
37 1189 COUTURIER CHRISTOPHE MSE 26   01:20:00 9,0 36
38 568 DE BRITO CEDRIC MSE 27   01:20:02 9,0 37
39 1648 PRZYBYLSKI DAVID MSE 28   01:20:18 9,0 38
40 537 CROZAT GREGORY MSE 29   01:20:43 8,9 39
41 1165 LALOIRE BAPTISTE MES 3 CHARMEIL VTT 01:20:48 8,9 40
42 1898 THEIS BENOIT MSE 30 LES BENREMAX 01:21:00 8,9 41
43 983 GUERY ALAIN MSE 31   01:21:03 8,9 42
44 1117 JULLIEN FRANCOIS MSE 32   01:21:30 8,8 43
45 1082 FORTIN CYRIL M? 1 LES BLAIREAUX 01:21:58 8,8 44
46 1323 MARTIN JEROME MSE 33   01:21:59 8,8 45
47 589 DECAS XAVIER MSE 34   01:22:41 8,7 46
48 1217 LEBRUN AURÉLIEN MSE 35   01:22:43 8,7 47
49 1397 MISSONNIN FLORENT MV1 6   01:23:20 8,6 48
50 1256 LINDRON GUILLAUME MV1 7   01:23:58 8,6 49
51 290 BOURDON CHRISTOPHE MV1 8   01:23:58 8,6 50
52 1176 LANDUREAU STEPHANE MV1 9   01:23:58 8,6 51
53 1827 SEDJAR SÉLIM MSE 36 LES BOUSE BOURIENS 01:24:00 8,6 52
54 628 DESMERCIERES FRANCK MSE 37   01:24:02 8,6 53
55 508 CORBET CAMILLE MSE 38   01:24:03 8,6 54
56 1213 LEBOURG JÉRÔME MSE 39   01:24:28 8,5 55
57 513 CORNUBET MICKAEL MSE 40   01:24:28 8,5 56
58 1216 LEBRUN NICOLAS MSE 41   01:24:49 8,5 57
59 1166 LALOIRE JEAN MICHEL MV1 10 CHARMEIL VTT 01:24:50 8,5 58
60 137 SOULAGNAT JULIEN MSE 42   01:24:55 8,5 59
61 46 ARNAUD AURELIEN MSE 43   01:25:03 8,5 60
62 1819 SAVARY FLORIAN MSE 44   01:25:18 8,4 61
63 493 COMBANIERE CYRILLE MSE 45   01:25:25 8,4 62
64 1289 MAHI DAMIEN MSE 46   01:25:28 8,4 63
65 729 ESCOBAR ROMAIN MSE 47   01:25:30 8,4 64
66 827 FROIDEFOND JULIEN MSE 48   01:25:32 8,4 65
67 223 BLONDEAU JULIEN MSE 49 POMPIERS DE MONTBRISON 01:25:32 8,4 66
68 1 ADAROUCH KERIAN MSE 50 POMPIERS DE MONTBRISON 01:25:34 8,4 67
69 1930 TOURRET DIDIER MV2 2   01:25:36 8,4 68
70 1138 LABOUYSSE MARCO MV2 3   01:25:39 8,4 69
71 1090 JEBROUNI ALI MSE 51   01:25:41 8,4 70
72 261 BORDEREAU ADRIEN MSE 52   01:25:43 8,4 71
73 504 CONVERS JACKY MV1 11   01:25:50 8,4 72
74 348 CAHUZAC YVES MSE 53   01:25:52 8,4 73
75 1348 MATTEI ROBERTO MSE 54   01:25:53 8,4 74
76 144 BENET JEROME MSE 55   01:25:59 8,4 75
77 145 BENET MICKAEL MSE 56   01:26:02 8,4 76
78 1606 PLISSON ROMAIN MSE 57   01:26:10 8,4 77
79 1841 SERRE BRUNO MV1 12   01:26:14 8,3 78
80 1927 TOUREAU-PEYNET AUDREY FSE 2 ECUREUILS ELOYSIENS 01:26:25 8,3 2
81 790 FLORET REMI MSE 58 LES BENREMAX 01:26:47 8,3 79
82 1949 TRUNEL VALENTIN MES 4 POMPIER DE MONTBRISON 01:26:57 8,3 80
83 59 AUCOUTURIER JULIEN MSE 59   01:26:57 8,3 81
84 1767 ROUSSEL LAURENT MSE 60   01:26:58 8,3 82
85 265 BOST MAXIME MES 5   01:26:59 8,3 83
86 221 BLIN SÉBASTIEN MSE 61 LES BLAIREAUX 01:27:01 8,3 84
87 1481 ORTONNE JULIEN MSE 62 LES DIEUX DU FOUR 01:27:03 8,3 85
88 526 COUSTET CHRISTOPHE MSE 63 LES PHACOCHERES PLAUZATOIS 01:27:43 8,2 86
89 112 BATIFOULIER LIONEL MSE 64 LES PHACOCHERES PLAUZATOIS 01:27:44 8,2 87
90 929 GOBY FABIEN MSE 65 L'AGENCE TOUS RISQUES 01:27:44 8,2 88
91 180 BESOMBES THIERRY MSE 66 L'AGENCE TOUS RISQUES 01:27:44 8,2 89
92 57 AUBOUIN PATRICE MV1 13 LES PHACOCHERES PLAUZATOIS 01:27:45 8,2 90
93 62 AUDRAIN NICOLAS MSE 67   01:27:46 8,2 91
94 1960 STEUNOU VALENTIN MSE 68 LES 3 NAINS 01:28:05 8,2 92
95 1854 SOARES SYLVAIN MSE 69   01:28:19 8,2 93
96 912 GIDEL BERTRAND MSE 70   01:28:34 8,1 94
97 242 BOLGIANI PATRICE MV1 14   01:28:42 8,1 95
98 1382 MIALHE STEPHANE MV1 15   01:28:51 8,1 96
99 1190 LAUR SEBASTIEN MV1 16   01:28:53 8,1 97
100 810 FOUILLOUSE NANS MES 6 POMPIERS DE MONTBRISON 01:29:17 8,1 98
101 239 BOISSIER VINCENT MSE 71   01:29:19 8,1 99
102 882 GAVALDA CYRIL MSE 72   01:29:21 8,1 100
103 1139 LABRE DAMIEN MSE 73   01:29:23 8,1 101
104 451 CHERY JEAN MARC MV2 4   01:29:27 8,0 102
105 1306 MANIERE JULIEN MES 7   01:29:33 8,0 103
106 422 CHARBONNIER MARC MSE 74 RÉGION AUVERGNE 1 01:29:34 8,0 104
107 701 DUPE JEAN-BAPTISTE MSE 75 LES APOTRES 01:29:50 8,0 105
108 1472 NOYER NICOLAS MSE 76 LES APOTRES 01:30:03 8,0 106
109 20 ALLOIE ROMAIN MSE 77   01:30:06 8,0 107
110 1728 RODDE JEROME MV1 17   01:30:13 8,0 108
111 1587 PIERRON GWENDOLINEG FSE 3   01:30:14 8,0 3
112 1302 MANEBARD MICKAEL MSE 78   01:30:23 8,0 109
113 72 BAADECHE HOUSNI MSE 79   01:30:26 8,0 110
114 1383 MIALLET STÉPHANE MSE 80   01:30:27 8,0 111
115 1810 SANTAMARIA JIMMY MES 8   01:30:30 8,0 112
116 238 BOISSIER GUILLAUME MSE 81   01:30:41 7,9 113
117 673 DUBOS ANNE SOPHIE FSE 4   01:30:43 7,9 4
118 1135 LABBE GUILLAUME MSE 82   01:30:49 7,9 114
119 913 GIDEL KEVIN MSE 83   01:31:14 7,9 115
120 249 BONIN NICOLAS MSE 84 POMPIERS DE MONTBRISON 01:31:24 7,9 116
121 2050 COHIGNAC PIERRE M? 2 NL 01:31:26 7,9 117
122 352 CALEYRON BENJAMIN MSE 85   01:31:26 7,9 118
123 1718 ROBERT SEBASTIEN MSE 86   01:31:27 7,9 119
124 1773 ROUVELIN FABRICE MSE 87   01:31:28 7,9 120
125 1389 MIGNE GREGORY MSE 88   01:31:29 7,9 121
126 1865 STEUNOU ALEXANDRE MSE 89 LES 3 NAINS 01:31:31 7,9 122
127 532 CRÊPET JULIEN MSE 90 POMPIERS DE MONTBRISONSP 01:31:50 7,8 123
128 315 BREA VINCENT MSE 91   01:31:52 7,8 124
129 1078 JACQUOT DAVID MSE 92   01:32:00 7,8 125
130 1388 MICOUREAU ARNAUD MSE 93   01:32:03 7,8 126
131 1899 THEIS MAXIME MSE 94 LES BENREMAX 01:32:04 7,8 127
132 1261 LOHR FRANÇOIS MSE 95   01:32:04 7,8 128
133 713 DURIN WALTER MV1 18   01:32:06 7,8 129
134 886 GELLATO OLIVIER MSE 96   01:32:08 7,8 130
135 1490 PAJOT BERTRAND MV1 19   01:32:21 7,8 131
136 1699 RICHARD HERVÉ MV1 20   01:32:22 7,8 132
137 897 GÉRARD ANTHONY MSE 97   01:32:28 7,8 133
138 235 BOISNARD THOMAS MSE 98   01:32:28 7,8 134
139 497 CONDE JOSE MV2 5   01:32:30 7,8 135
140 620 DERYCKE ROMAIN MSE 99 POMPIERS DE MONTBRISONSP 01:32:31 7,8 136
141 1798 SAINT LÉGER FABIEN MV1 21 POMPIER DE MONTBRISON 01:32:33 7,8 137
142 1195 LAVALLE SEBASTIEN MSE 100   01:32:33 7,8 138
143 1990 VIALLET PASCAL MV1 22   01:32:33 7,8 139
144 571 DE LA HERMOSA GABRIEL MSE 101   01:32:33 7,8 140
145 641 DEWEZ EMILIEN MSE 102   01:32:33 7,8 141
146 1204 LE FROUD FABIEN MSE 103   01:32:38 7,8 142
147 300 BOUSSET DIMITRI MSE 104 LES POUSSIN DE LA BUCHE 01:32:38 7,8 143
148 1091 JEGOU ÉRIC MV1 23   01:32:39 7,8 144
149 1892 TEIXEIRA VIVIEN MES 9   01:32:40 7,8 145
150 1425 MOSCHIETTI PIERRE MSE 105   01:32:48 7,8 146
151 570 DE FREITAS PATRICK MSE 106   01:33:04 7,7 147
152 69 AVIGNON JULIEN MSE 107   01:33:05 7,7 148
153 316 BRENON CHRISTOPHE MV1 24   01:33:06 7,7 149
154 611 DELPECH ARNAUD MSE 108   01:33:07 7,7 150
155 638 DEVAUX SEBASTIEN MSE 109   01:33:23 7,7 151
156 281 BOULANGER SYLVAIN MSE 110   01:33:25 7,7 152
157 365 CARDOEN YANNICK MSE 111   01:33:27 7,7 153
158 70 AVOND JEROME MSE 112   01:33:28 7,7 154
159 1690 RENAUD YVAN MSE 113   01:33:30 7,7 155
160 339 BUGE DANIEL MV1 25   01:33:32 7,7 156
161 1269 LOPEZ FRÉDÉRIC MV1 26 LES TUCHES 01:33:33 7,7 157
162 1588 PIGOIS ERIC MV1 27   01:33:33 7,7 158
163 778 FERRERA VINCENT MSE 114   01:34:07 7,6 159
164 1567 PEYNET HENRI MV2 6 ECUREIULS ELOYSIENS 01:34:12 7,6 160
165 1151 LACOSTE RÉGIS MSE 115   01:34:33 7,6 161
166 1626 POULAIN JOHAN MSE 116   01:34:34 7,6 162
167 1545 PERRIER CHRISTOPHE MV1 28   01:34:34 7,6 163
168 1414 MONTOY MARTIAL MV2 7   01:34:43 7,6 164
169 426 CHARNET HUBERT MV1 29   01:34:50 7,6 165
170 94 BARDOT ANTOINE MES 10   01:34:57 7,6 166
171 240 BOIVIN ALAIN MV2 8   01:35:00 7,6 167
172 51 ARTILLAN MICKAEL MSE 117   01:35:03 7,6 168
173 1811 SARNEL YANNICK MSE 118   01:35:04 7,6 169
174 1940 TRIVES CYRILLE MSE 119   01:35:05 7,6 170
175 1460 NOBLET NICOLAS MSE 120   01:35:06 7,6 171
176 2002 VILLENEUVE NICOLAS MV1 30   01:35:11 7,6 172
177 2027 WURTZ LUCIE FSE 5   01:35:25 7,5 5
178 735 ESPINOSA MICHAEL MSE 121   01:35:27 7,5 173
179 892 GENESTOUX DAVID MV1 31   01:35:37 7,5 174
180 285 BOURDAROT JULIEN MSE 122   01:35:48 7,5 175
181 1132 KRUK JEAN-FRANÇOIS MSE 123 LES RAMBOS 01:36:02 7,5 176
182 1108 JOURDE ROMAIN MSE 124 TEAM POCHE 01:36:08 7,5 177
183 1458 NIGON ADRIEN MSE 125   01:36:09 7,5 178
184 590 DECERLE VINCENT MSE 126   01:36:18 7,5 179
185 1847 SIMON CATHY FV1 1   01:36:21 7,5 6
186 1848 SIMON FRANCK MV1 32   01:36:22 7,5 180
187 101 BARRAS ARNAUD MSE 127   01:36:26 7,5 181
188 443 CHAUVE SEBASTIEN MSE 128   01:36:28 7,5 182
189 776 FERREIRA PASCAL MSE 129   01:36:33 7,5 183
190 605 DELILLE CHRISTOPHE MSE 130   01:36:35 7,5 184
191 1577 PIC PIERRE MV2 9   01:36:36 7,5 185
192 974 GRUHAUDE SEBASTIEN MSE 131   01:36:40 7,4 186
193 1948 TRUCHOT OLIVIER MV1 33 LES TUCHES 01:36:47 7,4 187
194 891 GENESTE SEBASTIEN MSE 132   01:36:49 7,4 188
195 1816 SAUVAGE CHRISTIAN MV1 34   01:36:51 7,4 189
196 372 CARVALHO SYLVAIN MSE 133   01:36:53 7,4 190
197 1670 RAMIN LILIAN MSE 134 LES ENRAGÉS 01:36:54 7,4 191
198 630 DESMON JEAN-MICHEL MV1 35   01:36:59 7,4 192
199 1400 MONACO JÉRÔME MV1 36   01:37:01 7,4 193
200 552 DAJOUX ETIENNE MSE 135   01:37:03 7,4 194
201 1463 NOËL YVES MSE 136   01:37:03 7,4 195
202 283 BOURAHLA MEHDI MSE 137   01:37:04 7,4 196
203 775 FERREIRA ALBINO MSE 138   01:37:06 7,4 197
204 1801 SALEMME JULES MSE 139   01:37:12 7,4 198
205 788 FLEURY MATTHIEU MSE 140 ACCRO TEAM 01:37:14 7,4 199
206 965 GREGOIRE GAEL MSE 141   01:37:15 7,4 200
207 741 FABREGUETTES AURÉLIEN MSE 142   01:37:16 7,4 201
208 1901 THEVENET CEDRIC MSE 143   01:37:18 7,4 202
209 11 ALBISSON SEBASTIEN MSE 144   01:37:30 7,4 203
210 450 CHENNEVIERE OLIVIER MV1 37 LES RICAINS 4 01:37:31 7,4 204
211 121 BAUDRY GILLES MV2 10   01:37:33 7,4 205
212 1907 THIOLIERE JEAN-YVES MSE 145   01:37:35 7,4 206
213 1134 KRUMMENACKER CÉDRIC MSE 146   01:37:38 7,4 207
214 1926 TOURBIÈR THOMAS MES 11 POMPIER DE MONTBRISON 01:37:39 7,4 208
215 1672 RAPHANEL BENOIT MSE 147   01:37:40 7,4 209
216 1582 PICHOT DORIAN MSE 148   01:37:41 7,4 210
217 314 BRASSIER JULIEN MSE 149   01:37:43 7,4 211
218 114 BATTEUX ANTHONY MSE 150   01:37:48 7,4 212
219 1449 NAVEAU JULIEN MSE 151 LES CHETIFFS 01:38:13 7,3 213
220 727 ENTREMONT DYLAN MSE 152   01:38:13 7,3 214
221 2016 VIVIER ALEXIS MES 12   01:38:32 7,3 215
222 1510 PASQUIER BRUNO MV1 38   01:39:04 7,3 216
223 120 BAUDRY OLIVIER MSE 153 CANADIEN 1 01:39:35 7,2 217
224 1746 ROQUES YANNICK MSE 154   01:39:45 7,2 218
225 524 COURTIAL FLORIAN MSE 155 VIEILLES PIPES 01:39:46 7,2 219
226 1231 LELUC NICOLAS MSE 156   01:39:56 7,2 220
227 633 DESPREZ CYRIL MSE 157 LES DIABLES DE TAZMANIE 01:39:57 7,2 221
228 988 GUICHARD FRANÇOIS MJU 3   01:39:59 7,2 222
229 445 CHAUVE STEPHANE MSE 158 POMPIERS DE MONTBRISONSP 01:40:01 7,2 223
230 1433 MOULART CÉLINE FSE 6   01:40:02 7,2 7
231 174 BERTHET YOAN MSE 159   01:40:04 7,2 224
232 1498 PARADINHA MICHEL MV1 39   01:40:05 7,2 225
233 344 CABECINHAS NÉLIO MSE 160   01:40:06 7,2 226
234 1046 HIDIEN FREDERIC MSE 161   01:40:07 7,2 227
235 1248 LIANDRAT PASCAL MSE 162   01:40:21 7,2 228
236 663 DOUPEUX MARVIN MSE 163 TEAM POCHE 01:40:23 7,2 229
237 1641 PRIEZ ANTOINE MV1 40   01:41:34 7,1 230
238 525 COURTINAT JONATHAN MSE 164 LES RAMBOS 01:41:35 7,1 231
239 1309 MARCHAND JEAN MARC MV1 41   01:41:36 7,1 232
240 1729 RODDIER DIMITRI MES 13 LES CHETIFFS 01:41:37 7,1 233
241 201 BIGAND JAMES MSE 165   01:41:38 7,1 234
242 847 GALLARDO BRICE MSE 166   01:41:45 7,1 235
243 1760 ROURE ROMAIN MSE 167   01:41:46 7,1 236
244 649 DILLENSEGER MARC MV1 42   01:41:46 7,1 237
245 1851 SLIWA THIERRY MV1 43   01:41:47 7,1 238
246 1238 LENY ERIC MSE 168   01:41:50 7,1 239
247 343 BUTTIER FRANCOIS MSE 169   01:41:51 7,1 240
248 1328 MARTIN EMERICK MSE 170   01:41:52 7,1 241
249 770 FERNANDES ADAO MV1 44   01:41:53 7,1 242
250 1310 MARCHAND REMI MSE 171   01:41:54 7,1 243
251 1144 LACEUX MICKAËL MSE 172   01:41:54 7,1 244
252 771 FERNANDES FRANÇOIS MSE 173   01:41:55 7,1 245
253 1999 VIGNON JEREMY MES 14   01:41:55 7,1 246
254 437 CHAUMARD THOMAS MSE 174 BAYWATCH 01:41:56 7,1 247
255 1311 MARCHAND ELIETTE FSE 7 LES SOURIS DU 63 01:41:56 7,1 8
256 791 FLURY CEDRIC MSE 175 L'EBIFFLE 01:41:56 7,1 248
257 1972 VAYSSIE BERNARD MV1 45   01:41:56 7,1 249
258 742 FACHINETTI GUILLAUME MSE 176 L'EBIFFLE 01:41:56 7,1 250
259 1255 LIMOUZIN JONATHAN MSE 177   01:41:57 7,1 251
260 746 FAITOUT LUDOVIC MV1 46   01:41:57 7,1 252
261 1756 ROUGIER SYLVAIN MSE 178   01:41:57 7,1 253
262 1106 JOUBERT SAMUEL MSE 179 L'EBIFFLE 01:41:58 7,1 254
263 1157 LADENT PIERRE-HENRI MJU 4   01:41:58 7,1 255
264 1312 MARCHAND JULIEN MSE 180   01:41:58 7,1 256
265 2007 VINCENT LUDOVIC MV1 47   01:41:59 7,1 257
266 1136 LABETOULE VINCENT MSE 181   01:41:59 7,1 258
267 843 GAILLAT SEBASTIEN MV1 48   01:41:59 7,1 259
268 1075 JACQUET FRANCK MV1 49   01:42:00 7,1 260
269 1593 PINTO LINO MV1 50   01:42:00 7,1 261
270 705 DUPRE JEROME MSE 182   01:42:00 7,1 262
271 341 BURNEL JACKY MV1 51 LES DURS A CUIRE 01:42:00 7,1 263
272 482 CLAUDET MARTIN MSE 183   01:42:01 7,1 264
273 402 CHALAYE JÉRÔME MV1 52   01:42:01 7,1 265
274 434 CHASSON EMILIEN MSE 184   01:42:01 7,1 266
275 342 BUSNEL FREDERIC MSE 185   01:42:02 7,1 267
276 662 DOUBREMELLE GUILLAUME MSE 186 ACCRO TEAM 01:42:02 7,1 268
277 1603 PLANE OLIVIER MV2 11   01:42:02 7,1 269
278 1384 MICHALET SEBASTIEN MSE 187   01:42:03 7,1 270
279 947 GOUGEON JULIEN MSE 188   01:42:03 7,1 271
280 45 ARLABOSSE VINCENT MSE 189   01:42:04 7,1 272
281 1736 ROGIER PHILIPPE MV1 53   01:42:05 7,1 273
282 1650 PUECH NICOLAS MSE 190   01:42:12 7,0 274
283 1350 MATUSSIERE JONATHAN MES 15   01:42:32 7,0 275
284 190 BESSON SYLVAIN MSE 191   01:42:33 7,0 276
285 1085 JARRIX FREDERIC MSE 192   01:42:33 7,0 277
286 1647 PRZEDLACKI DAVID MSE 193   01:42:50 7,0 278
287 943 GOUARD HERMINIE FES 1   01:42:59 7,0 9
288 976 GRYSELEYN VIRGINIE FV1 2   01:43:14 7,0 10
289 730 ESCOFFIER BRUNO MV1 54   01:43:26 7,0 279
290 681 DUCHEZ SYLVAIN MSE 194   01:43:50 6,9 280
291 1894 TERRANOVA PHILIPPE MV1 55   01:44:09 6,9 281
292 1770 ROUSSELLE LYDIE FSE 8   01:44:15 6,9 11
293 475 CIRGOUDOUX FRANCK MSE 195 SANEX BRO 01:44:17 6,9 282
294 1780 ROUX OLIVIER MV1 56   01:44:18 6,9 283
295 864 GARCIA DAVID MSE 196   01:44:22 6,9 284
296 292 BOURGEOIS YANNICK MV1 57   01:44:44 6,9 285
297 1857 SOLEILLANT GREGORY MSE 197   01:44:46 6,9 286
298 992 GUILBAUD JOHANN MSE 198   01:44:48 6,9 287
299 1163 LAFONT SIMON MSE 199   01:44:48 6,9 288
300 302 BOUTEYRON FRED MV1 58   01:44:49 6,9 289
301 821 FRANCOIS JOSE MSE 200 DOCKERSLEHAVRE 01:44:49 6,9 290
302 17 ALLÈGRE CAROLINE FSE 9   01:44:50 6,9 12
303 823 FRANÇOIS ETIENNE MSE 201 LES RANGERS DU NUCLÉAIRE 01:44:51 6,9 291
304 131 BEDNAREK DAVID MV1 59   01:44:53 6,9 292
305 1173 LANDEMAINE MAT MSE 202   01:44:53 6,9 293
306 92 BARBOSA PAULO MSE 203   01:44:54 6,9 294
307 1778 ROUX JEREMY MSE 204   01:45:01 6,9 295
308 853 GALVAING GERAUD MSE 205   01:45:03 6,9 296
309 688 DUCROS NICOLAS MV1 60   01:45:08 6,8 297
310 163 BERNARD CYRIL MSE 206   01:45:16 6,8 298
311 1518 PAYEN ADRIEN MSE 207   01:45:24 6,8 299
312 1764 ROUSSEAU CHRISTOPHE MV1 61   01:45:30 6,8 300
313 1185 LAROUX ALAIN MV1 62   01:45:35 6,8 301
314 640 DEVEAU THOMAS MSE 208   01:45:36 6,8 302
315 151 BENOIT ANTOINE MSE 209   01:45:39 6,8 303
316 1682 REANT JEAN CHRISTOPHE MSE 210   01:46:04 6,8 304
317 618 DENLIKER JEAN PIERRE MV1 63   01:46:06 6,8 305
318 1750 ROSSIGNOL SANDRINE FV1 3 GIDYTEAM45 01:46:08 6,8 13
319 1890 TEIXEIRA JEAN PIERRE MV1 64 GIDYTEAM45 01:46:09 6,8 306
320 777 FERREIRA LOURENCO FERNANDO MV1 65   01:46:11 6,8 307
321 1812 SARRASIN NICOLAS MSE 211   01:46:12 6,8 308
322 140 BELLON GUILLAUME MV1 66   01:46:13 6,8 309
323 774 FERRANDON GEROME MSE 212   01:46:15 6,8 310
324 527 COUSTET LAETITIA FSE 10   01:46:16 6,8 14
325 110 BATIFOULIER SEVERINE FV1 4   01:46:16 6,8 15
326 689 DUCROS FLORIMOND MV1 67 RÉGION AUVERGNE 1 01:46:17 6,8 311
327 1409 MONTANGON JEANINE FV2 1   01:46:26 6,8 16
328 609 DELODDE FANNY FES 2   01:46:29 6,8 17
329 714 DURVAL FRANCK MV1 68 LES BECS A FOIN 2 01:46:30 6,8 312
330 1177 LANHERS OLIVIER MV2 12   01:46:31 6,8 313
331 270 BOUCHE NATHALIE FV1 5   01:46:33 6,8 18
332 953 GOUTTEBEL BAPTISTE MSE 213   01:46:35 6,8 314
333 312 BOYER ROMAIN MSE 214   01:46:37 6,8 315
334 645 DIAS MOREIRA JEAN-FRANÇOIS MV1 69 MARGOUILLAT 03 - 1 01:46:39 6,8 316
335 842 GAILLARD THOMAS MSE 215   01:46:48 6,7 317
336 783 FILLION FLORENT MSE 216   01:46:52 6,7 318
337 67 AUROUX BENOÎT MES 16   01:46:54 6,7 319
338 574 DE PAREDES VINCENT MES 17   01:46:55 6,7 320
339 1916 THOMIR ULRICH MV1 70   01:46:55 6,7 321
340 1525 PEILLON JEAN-PHILIPPE MSE 217   01:47:04 6,7 322
341 1771 ROUSSET DAVID MSE 218 SANEX BRO 01:47:06 6,7 323
342 409 DESMET PATRICK MV1 71   01:47:08 6,7 324
343 1045 HEYMES SERGE MV1 72   01:47:11 6,7 325
344 361 CAPELLI BENJAMIN MSE 219   01:47:22 6,7 326
345 2018 VOGRIG CLÉMENT MSE 220   01:47:22 6,7 327
346 585 DEBARGES DANIEL MV2 13   01:47:39 6,7 328
347 1932 TRACZ RICHARD MV1 73   01:47:54 6,7 329
348 2023 WASILEWSKI GAETAN MSE 221   01:47:55 6,7 330
349 177 BERTON OLIVIER MV1 74   01:47:57 6,7 331
350 1900 THEVENET ROMAIN MSE 222   01:48:16 6,6 332
351 1619 PORTE ERIC MV1 75   01:48:19 6,6 333
352 2013 VIOLA DAVID MV1 76   01:48:22 6,6 334
353 954 GOUVEIA DOS SANTOS REIS AURÉLIEN MSE 223   01:48:24 6,6 335
354 1347 MATOS RAOUL MSE 224   01:48:24 6,6 336
355 1942 TRIVES SERGE MV2 14   01:48:25 6,6 337
356 881 GAUTIER DOMINIQUE MV1 77   01:48:25 6,6 338
357 1257 LIVEBARDON VINCENT MSE 225   01:48:25 6,6 339
358 751 FARGEIX SANDRA FSE 11 MONTEURS EDF 01:48:25 6,6 19
359 1440 MOUYEN THOMAS MES 18 ELLE EST OÙ JEANNE ? 01:48:26 6,6 340
360 42 ARBRE MICHEL MV2 15 MONTEURS EDF 01:48:27 6,6 341
361 44 ARBRE JULIEN MSE 226 LES KÉSJFOULÀ?! 01:48:27 6,6 342
362 1410 MONTES FLORENT MSE 227   01:48:35 6,6 343
363 296 BOURLON ANTOINE MSE 228 SANEX BRO 01:48:37 6,6 344
364 125 BEAUDOIN PIERRE MSE 229   01:48:41 6,6 345
365 1041 HERMILLE MATHIEU MSE 230   01:48:51 6,6 346
366 1411 MONTOURCY LAURENT MV1 78   01:48:52 6,6 347
367 116 BAUCHET ROMAIN MSE 231   01:48:52 6,6 348
368 6 AJASSE FABIEN MSE 232   01:49:02 6,6 349
369 379 CATALAN PIERRE-ANTOINE MES 19 ELLE EST OÙ JEANNE ? 01:49:03 6,6 350
370 1434 MOULIN CEDRIC MSE 233   01:49:05 6,6 351
371 632 DESPLAN ANTOINE MES 20 ELLE EST OÙ JEANNE ? 01:49:05 6,6 352
372 421 CHARBONNEL CYRIL MSE 234 LES BISOUNOURS 01:49:30 6,6 353
373 1450 NAVEAU PAUL MES 21 LES CHETIFFS 01:49:31 6,6 354
374 460 CHEYVIALLE LIONEL MSE 235 LES BISOUNOURS 01:49:35 6,6 355
375 224 BLONDONNET RAIKO MSE 236   01:50:07 6,5 356
376 1920 TOMBETTE DAVID MSE 237 MONTEURS EDF 01:50:08 6,5 357
377 1881 TANTOT MICHAËL MSE 238   01:50:10 6,5 358
378 934 GOMOT CYRILLE MSE 239   01:50:12 6,5 359
379 444 CHAUVE ALEXANDRA FSE 12 POMPIER DE MONTBRISONSP 01:50:12 6,5 20
380 1076 JACQUET OLIVIER MV1 79   01:50:14 6,5 360
381 1465 NORBERTO CARLOS FV1 6   01:50:21 6,5 21
382 1008 GUYOT ALEXIS MSE 240   01:50:25 6,5 361
383 1381 MEYZEN MATTHIEU MSE 241   01:50:39 6,5 362
384 1505 PARIS DENIS MSE 242   01:50:43 6,5 363
385 556 DALLOT JULIEN MSE 243   01:50:44 6,5 364
386 1466 NORBERTO LOHAN MJU 5   01:50:52 6,5 365
387 1517 PAUPERT GEOFFREY MSE 244   01:51:03 6,5 366
388 961 GRASSET DENIS MSE 245   01:51:04 6,5 367
389 962 GRASSET LAURENT MSE 246   01:51:05 6,5 368
390 529 COUTROUTSIOS DEBORAH FSE 13   01:51:13 6,5 22
391 404 CHALMETTE STEPHANE MSE 247   01:51:14 6,5 369
392 2048 FRAISSE SYLVAIN MSE 248   01:51:15 6,5 370
393 37 ANGIN NICO MSE 249   01:51:15 6,5 371
394 767 FAYE GAEL MSE 250 LES ENRAGÉS 01:51:16 6,5 372
395 387 CELLIER FREDERIC MSE 251   01:51:24 6,5 373
396 2049 MARQUES DOMINGO MSE 252   01:51:24 6,5 374
397 398 CHAIB VINCENT MSE 253   01:51:25 6,5 375
398 327 BROUCKE XAVIER MSE 254 LES TROLLS SWATELAERES 1 01:51:26 6,5 376
399 479 CLAEYSSEN ALLAN MSE 255 LES TROLLS SWATELAERES 1 01:51:31 6,5 377
400 480 CLAEYSSEN MORGAN MSE 256 LES TROLLS SWATELAERES 1 01:51:33 6,5 378
401 548 DA SILVA DAVID MSE 257   01:51:46 6,4 379
402 384 CAVELIER ANTHONY MSE 258   01:51:46 6,4 380
403 607 DELMAS FRANCK MSE 259 LES BOUSE BOURIENS 01:51:51 6,4 381
404 1452 NICOLAS JEAN MSE 260 LES BOUSE BOURIENS 01:51:53 6,4 382
405 1558 PETIBON FRANCK MSE 261   01:51:55 6,4 383
406 1170 LAMY GEOFFREY MSE 262 BAYWATCH 01:52:03 6,4 384
407 546 DA PIEDADE REMY MSE 263   01:52:04 6,4 385
408 547 DA SILVA LIONEL MSE 264   01:52:06 6,4 386
409 1570 PEYRIN JEAN LOUIS MV2 16   01:52:08 6,4 387
410 993 GUILBAUDEAU CHRISTOPHE MSE 265 LES PAPAS 01:52:11 6,4 388
411 1287 MAGNE HERVE MSE 266 LES PAPAS 01:52:11 6,4 389
412 1605 PLATTEAUX PIERRE MSE 267   01:52:16 6,4 390
413 1884 TARTARE JEROME MSE 268   01:52:18 6,4 391
414 750 FARAGALLAH ANTOINE MES 22   01:52:28 6,4 392
415 82 MONTALBAN SEBASTIEN M? 3 NL 01:52:32 6,4 393
416 83 D'ANGELO JEROME M? 4 NL 01:52:34 6,4 394
417 234 BOIREAU DAMIEN MV1 80 LES COCHONS EN FURIE 01:52:34 6,4 395
418 255 BONNET NICOLAS MSE 269   01:52:36 6,4 396
419 334 BRUN BERNARD MV2 17   01:52:38 6,4 397
420 337 BRUN ROMAIN MES 23   01:52:40 6,4 398
421 884 GAYDIER JEAN FRANCOIS MSE 270   01:52:42 6,4 399
422 1352 MAUFRAIS YOHANN MSE 271   01:52:42 6,4 400
423 1453 NICOLAS JOEL MV2 18 VALEO 01:52:47 6,4 401
424 405 CHALUS JOEL MV2 19   01:52:50 6,4 402
425 871 GATINEAU ALEXANDRE MSE 272   01:52:52 6,4 403
426 793 FOLTIER AURÉLIEN MSE 273   01:52:59 6,4 404
427 1878 TALHOUET SIMON MSE 274   01:52:59 6,4 405
428 1293 MAISONNETTE LAURENT MSE 275   01:53:01 6,4 406
429 1944 TRONCHERE BENOIT MSE 276   01:53:04 6,4 407
430 1529 PELTRE BENOÎT MSE 277   01:53:05 6,4 408
431 1662 QUIQUANDON JOHN-PIERRE MSE 278   01:53:07 6,4 409
432 1708 RIOUFREYT JEAN JACQUES MV1 81   01:53:14 6,4 410
433 734 ESPINHA RAPHAEL MSE 279   01:53:28 6,3 411
434 1655 QUATRESOUS NICOLAS MSE 280 LES COCHONS EN FURIE 01:53:33 6,3 412
435 1936 TRESCARTE CHRISTIAN MV2 20   01:53:38 6,3 413
436 1961 VALETTE MICHEL MV2 21   01:53:38 6,3 414
437 1221 LEGER RENAUD MSE 281   01:53:45 6,3 415
438 917 GILLERON XAVIER MSE 282   01:53:45 6,3 416
439 1237 LENTZ NATACHA FSE 14 POMPIERS DE MONTBRISON 01:53:46 6,3 23
440 1971 VAUDEMONT JULIEN MSE 283   01:53:47 6,3 417
441 1630 POUSSOU FRANCK MV1 82   01:53:51 6,3 418
442 1544 PERRIER LAURENT MSE 284   01:53:53 6,3 419
443 922 GINOUX CYRIL MSE 285   01:53:55 6,3 420
444 461 CHIARINI JEAN-PHILIPPE MV1 83   01:53:55 6,3 421
445 369 CARRERE MAXIME MSE 286 BAYWATCH 01:53:56 6,3 422
446 212 BLANCHARD PIERRE MSE 287   01:54:01 6,3 423
447 335 BRUN KEVIN MSE 288   01:54:01 6,3 424
448 1638 PRADON BENJAMIN MSE 289   01:54:14 6,3 425
449 1398 MLECZAK MATHIEU MSE 290   01:54:14 6,3 426
450 1375 MESSAGE THIERRY MSE 291   01:54:15 6,3 427
451 1671 RAMOS DAMIEN MSE 292   01:54:16 6,3 428
452 197 BIDEAU GUILLAUME MSE 293   01:54:18 6,3 429
453 1768 ROUSSEL XAVIER MSE 294   01:54:24 6,3 430
454 566 VIVIER STEPHANE MSE 295   01:54:26 6,3 431
455 50 ARTAUD NANS MSE 296   01:54:33 6,3 432
456 1105 JOUANNE MANON FES 3 LES PAPAS 01:54:34 6,3 24
457 262 BORDES PHILIPPE AUGUSTE MV2 22   01:55:00 6,3 433
458 2024 WEBER KARL MSE 297 LES RICAINS 5 01:55:55 6,2 434
459 787 FLAVIER FABRICE MV1 84 LES RICAINS 1 01:55:56 6,2 435
460 1095 JESSAT JOHNNY MSE 298 LES RICAINS 5 01:55:57 6,2 436
461 676 DUBUISSON JEAN PIERRE MV1 85   01:56:03 6,2 437
462 554 DALIBERT STEEVEN MSE 299 LES RICAINS 2 01:56:14 6,2 438
463 1413 MONTOVAN ALEXANDRE MSE 300   01:56:22 6,2 439
464 349 CAILLAT ETIENNE MV1 86   01:56:28 6,2 440
465 819 FRANCHI JOSÉ-DAVID MSE 301   01:56:28 6,2 441
466 844 GAINIER JONATHAN MSE 302 LES RICAINS 2 01:56:29 6,2 442
467 1112 JUCHET NICOLAS MSE 303 LES RICAINS 3 01:56:35 6,2 443
468 860 GARCIA FRANCIS MV2 23   01:56:40 6,2 444
469 870 GATIGNOL WILLIAM MV1 87 GGK LE RETOUR 01:56:44 6,2 445
470 936 GONCALVES MICHAEL MSE 304   01:56:58 6,2 446
471 208 BLANC LAURENT MSE 305 POMPIERS DE MONTBRISON 01:56:59 6,2 447
472 782 FILAIRE LAURA MSE 306 LES DOC' 01:56:59 6,2 448
473 722 EISNER NICOLAS MSE 307   01:56:59 6,2 449
474 650 DIRAND PERCEVAL MES 24   01:57:00 6,2 450
475 911 GIDEL MICHAEL MES 25   01:57:01 6,2 451
476 259 BOOG CLAIRE FSE 15 LES DOC' 01:57:01 6,2 25
477 113 BATTEUX TIMOTHEE MSE 308   01:57:02 6,2 452
478 1270 LOUGNON TEDDY MSE 309 LA FINE ÉQUIPE 1 01:57:02 6,2 453
479 816 FRANC FRÉDÉRIC MV1 88   01:57:03 6,2 454
480 128 BEC CHRISTOPHE MV1 89   01:57:05 6,1 455
481 1633 POUZET MICHAEL MSE 310 LA FINE ÉQUIPE 2 01:57:08 6,1 456
482 578 DE REBEVAL CLÉMENT MSE 311   01:57:18 6,1 457
483 528 COUTAREL NICOLAS MSE 312   01:57:20 6,1 458
484 483 CLEARD FREDERIC MSE 313 VALEO 01:57:31 6,1 459
485 484 CLEARD PIERRE MV1 90 VALEO 01:57:31 6,1 460
486 1077 JACQUIN PASCAL MV1 91 VALEO 01:57:31 6,1 461
487 1624 POTTIER THIBAUD MV1 92   01:57:52 6,1 462
488 1822 SCHILLING DAVID MSE 314   01:57:56 6,1 463
489 824 FRICHOT VINCENT MSE 315 EQUIPE E 01:58:01 6,1 464
490 32 ANCEL SEBASTIEN MSE 316 EQUIPE E 01:58:03 6,1 465
491 1479 ORTIGIER ALEXANDRE MSE 317   01:58:03 6,1 466
492 928 GLOTIN JEROME MSE 318   01:58:20 6,1 467
493 248 BONILLO YOAN MES 26   01:58:21 6,1 468
494 1691 RENNER JEREMY MSE 319   01:58:24 6,1 469
495 1763 ROUSSEAU MICLE MV2 24   01:58:30 6,1 470
496 1368 MENDES TEDDY MSE 320   01:58:37 6,1 471
497 411 CHAMPAVERE JÉRÉMY MSE 321 LES RICAINS 3 01:58:44 6,1 472
498 622 DESCHAMPS JEROME MSE 322 LES RICAINS 5 01:58:46 6,1 473
499 38 ANSELMINO LUDOVICO MSE 323   01:58:47 6,1 474
500 91 BARBIER THIERRY MV1 93   01:58:48 6,1 475
501 1243 LESGAGES FREDERIC MSE 324   01:58:49 6,1 476
502 1207 LE RIDANT ALEXANDRE MSE 325   01:58:50 6,1 477
503 1365 MELOT OLIVIER MSE 326   01:58:50 6,1 478
504 1538 PERNOT XAVIER MSE 327 LES RICAINS 4 01:58:50 6,1 479
505 576 DE REBEVAL ARNAUD MSE 328   01:58:54 6,1 480
506 577 DE REBEVAL AUGUSTIN MSE 329   01:58:55 6,1 481
507 1066 IBERT YOANN MSE 330   01:58:57 6,1 482
508 1131 KOWALSKI FRÉDÉRIC MV1 94 GGK LE RETOUR 01:58:58 6,1 483
509 1595 PIQUET DOMINIQUE MV1 95   01:59:00 6,0 484
510 835 GAGNON GREGORY MSE 331   01:59:02 6,0 485
511 1680 RAYNAL ALAIN MSE 332 LES RICAINS 2 01:59:02 6,0 486
512 1297 MALFERIOL FABIEN MV1 96   01:59:09 6,0 487
513 952 GOUTTEBARGE GUILLAUME MV1 97 GGK LE RETOUR 01:59:09 6,0 488
514 466 CHOMETON JÉRÔME MV1 98   01:59:11 6,0 489
515 1707 RIOU MIKAEL MSE 333   01:59:15 6,0 490
516 1099 JOBERT OLIVIER MV1 99   01:59:15 6,0 491
517 1887 TEATINI DAVID MV1 100   01:59:15 6,0 492
518 600 DELAY JULIEN MSE 334 LES PRINCES 01:59:21 6,0 493
519 1998 VIGNES THIERRY MV1 101   01:59:22 6,0 494
520 1484 OZWALD ALEXIS MES 27 LES BOIT-SANS-SOIF 01:59:34 6,0 495
521 1864 STEIN ADRIAN MES 28 LES BOIT-SANS-SOIF 01:59:35 6,0 496
522 79 BAIG FLORIAN MES 29 LES BOIT-SANS-SOIF 01:59:35 6,0 497
523 1692 REVELLO PASCAL MV1 102   01:59:44 6,0 498
524 371 CARTRON JÉRÔME MV1 103   01:59:48 6,0 499
525 977 GUAY PHILIPPE MV1 104   01:59:56 6,0 500
526 1966 VANLAERE BASTIEN MSE 335   01:59:59 6,0 501
527 709 DURAND PHILIPPE MV1 105   01:59:59 6,0 502
528 738 ETTORI DAVID MSE 336   02:00:15 6,0 503
529 1623 POTTIER VALÉRIE FV1 7   02:00:18 6,0 26
530 1214 LEBRAS MICKAEL MSE 337   02:00:28 6,0 504
531 1110 JOZENCY FABIEN MSE 338   02:00:29 6,0 505
532 1719 ROBIC ALAIN MV1 106   02:00:31 6,0 506
533 1451 NEUVY FLAVIEN MV1 107   02:00:35 6,0 507
534 68 AUTEROCHE PIERRE-ADRIEN MSE 339 LES BLAIREAUX 02:00:41 6,0 508
535 52 ARTUS OLIVIER MSE 340 LES TUCHES 02:00:43 6,0 509
536 1067 IELMINI LOIC MSE 341   02:01:22 5,9 510
537 1320 MARQUET GÉRALDINE FV1 8   02:01:23 5,9 27
538 754 FARGES FYEIRE GEOFFREY MES 30   02:01:24 5,9 511
539 1800 FALCON LILIAN M? 5 NL 02:01:29 5,9 512
540 1914 THOMAS JEROME MSE 342   02:01:37 5,9 513
541 1461 NOBLET SEBASTIEN MV1 108   02:01:39 5,9 514
542 1766 ROUSSEL NICOLAS MSE 343 HELL'S PISTONS 2 02:01:45 5,9 515
543 1467 NORMAND FRANCOIS MSE 344 HELL'S PISTONS 2 02:01:45 5,9 516
544 383 CAUVIN THIERRY MV1 109 HELL'S PISTONS 1 02:01:46 5,9 517
545 382 CAUVIN DAVID MV1 110 HELL'S PISTONS 1 02:01:50 5,9 518
546 1167 LAMIRAND OLIVIER MSE 345 HELL'S PISTONS 1 02:01:53 5,9 519
547 1803 SALMANAD RICHARD MV1 111   02:02:03 5,9 520
548 1438 MOURET LIONEL MSE 346   02:02:17 5,9 521
549 1913 THOMAS ANTHONY MSE 347 LES PRINCES 02:02:30 5,9 522
550 1562 PETIT PIERRE MV2 25 LES CORRINGE 02:02:40 5,9 523
551 1146 LACHAUD GREGORY MSE 348   02:02:45 5,9 524
552 558 DARBY NICOLAS MSE 349 LES PRINCES 02:02:50 5,9 525
553 1485 PAGES CYRIL MSE 350   02:03:19 5,8 526
554 1635 POYET PASCAL MV2 26   02:03:28 5,8 527
555 696 DUJOUX VINCENT MSE 351   02:03:42 5,8 528
556 1337 MARTINO ALEXANDRE MSE 352   02:03:43 5,8 529
557 269 BOUCHARD ALAIN MV1 112   02:03:44 5,8 530
558 1654 QUARTINO NICOLAS MSE 353 MOOKIE 13 02:03:45 5,8 531
559 2037 ZYCHOWNA ALEXANDRE MES 31 MOOKIE 13 02:03:47 5,8 532
560 457 CHEVARIN GAETAN MSE 354   02:03:53 5,8 533
561 254 BONNEFOY NICOLAS HUGKEN MSE 355   02:03:54 5,8 534
562 1001 GUINET JULEIN MSE 356   02:03:54 5,8 535
563 594 DEL PUP CEDRIC MSE 357 SUD FOOT 71 N°1 02:03:54 5,8 536
564 1079 JACQUY JEAN YVES MSE 358 SUD FOOT 71 N°2 02:03:56 5,8 537
565 698 DUMEIL STEPHANE MSE 359   02:03:57 5,8 538
566 1785 ROYET VINCENT MSE 360 SUD FOOT 71 N°2 02:03:58 5,8 539
567 877 FERRARI ANDRÉ MV1 113   02:04:04 5,8 540
568 572 DE FREITAS ANAIS FES 4   02:04:06 5,8 28
569 1701 RICORNET PIERRE MSE 361   02:04:17 5,8 541
570 1042 HEROLD NICOLAS MSE 362   02:04:25 5,8 542
571 280 BOUL XAVIER MSE 363 OVÉSIENS NORMAND 02:04:28 5,8 543
572 1370 MERDRIGNAC MAËLA FSE 16 OVÉSIENS NORMAND 02:04:29 5,8 29
573 253 BONNEFOY NICOLAS MV1 114 OVÉSIENS NORMAND 02:04:32 5,8 544
574 1590 PINAUD LAURENT MSE 364   02:04:41 5,8 545
575 332 BRULEY ALEXANDRE MSE 365 LES ENRAGÉS 02:04:48 5,8 546
576 1299 MALLET BENOIT MSE 366   02:04:50 5,8 547
577 1264 LOLITO BENJAMIN MSE 367   02:04:51 5,8 548
578 1026 HELLERIGEL JOFFREY MES 32   02:04:51 5,8 549
579 1386 MICHEL JULIEN MSE 368   02:04:55 5,8 550
580 972 GRISEY AURÉIEN MSE 369   02:05:01 5,8 551
581 1149 LACOMBE JEAN-YVES MV1 115   02:05:04 5,8 552
582 1180 LANOIX BAPTISTE MSE 370   02:05:07 5,8 553
583 1405 MONNERET PASCAL FV1 9   02:05:13 5,7 30
584 1179 LANOIX HUGO MES 33   02:05:15 5,7 554
585 1162 LAFON STEPHANE MV1 116   02:05:18 5,7 555
586 629 DESMET MARC MV1 117   02:05:20 5,7 556
587 1036 HERAULT FRANÇOIS MV1 118   02:05:25 5,7 557
588 543 D'HONT GRÉGOIRE MSE 371 LES BOMBEURS JEAN 02:05:48 5,7 558
589 918 GILLIOT MAXIME MSE 372 LES BOMBEURS JEAN 02:05:49 5,7 559
590 1038 HERBIN JULIEN MSE 373 LES BOMBEURS JEAN 02:05:50 5,7 560
591 1192 LAVAIL BENJAMIN MES 34   02:05:51 5,7 561
592 1039 HERBIN DAMIEN MSE 374   02:05:53 5,7 562
593 203 BIGOURET ANTHONY MES 35   02:05:54 5,7 563
594 1003 GUY STÉPHANE MV1 119   02:06:00 5,7 564
595 464 CHO EUISUK FV1 10 LES CORRINGE 02:06:03 5,7 31
596 1308 MARCHAL MICHAEL MSE 375   02:06:04 5,7 565
597 1522 PEIFFERT KEVIN MSE 376   02:06:06 5,7 566
598 1022 HARNISH OLIVIER MV1 120   02:06:08 5,7 567
599 102 BARRAT MAXIME MSE 377   02:06:14 5,7 568
600 1758 ROULIN ARNAUD MSE 378   02:06:15 5,7 569
601 1915 THOMAS CECILE FV1 11   02:06:17 5,7 32
602 1420 MOREAU FREDDY MSE 379   02:06:24 5,7 570
603 1193 LAVAIL OLIVIER MSE 380   02:06:28 5,7 571
604 979 GUENIER FABRICE MV1 121   02:06:53 5,7 572
605 1424 MOROT BRUNO MSE 381   02:07:00 5,7 573
606 1063 HYVERNAT MARTIAL MV1 122   02:07:02 5,7 574
607 219 BLETTERIE CORENTIN MSE 382   02:07:06 5,7 575
608 2006 VINCENT LAURENT MV1 123   02:07:14 5,7 576
609 915 GILBERT CHRISTOPHE MV1 124   02:07:34 5,6 577
610 820 FRANCISCO JEAN BAPTISTE MJU 6   02:07:45 5,6 578
611 595 DELAGE PASCAL MV1 125   02:08:02 5,6 579
612 377 CASTEL ARMAND MSE 383   02:08:11 5,6 580
613 796 FONTEIX RICHARD MSE 384   02:08:19 5,6 581
614 1034 HENRY JEAN FREDERIC MV1 126   02:08:20 5,6 582
615 950 GOUT JEREMIE MSE 385   02:08:23 5,6 583
616 1462 NOEL XAVIER MV1 127   02:08:30 5,6 584
617 766 FAVY MARTIN MSE 386   02:08:30 5,6 585
618 474 CIALDELLA JONATHAN MSE 387 LES TROIS DERNIERS 02:08:34 5,6 586
619 712 DURIN CEDRIC MV1 128 LES TROIS DERNIERS 02:08:35 5,6 587
620 693 DUFOULON JUSTINE FSE 17   02:08:50 5,6 33
621 204 BIGOURET THOMAS MSE 388   02:08:50 5,6 588
622 999 GUILLOT PIERRE MSE 389 LES TROIS DERNIERS 02:08:50 5,6 589
623 424 CHAREYRON GAËTAN MSE 390   02:08:51 5,6 590
624 998 GUILLOT NICOLAS MSE 391   02:08:52 5,6 591
625 1783 ROY STEPHANE MV1 129 ESCAPADE ERDF 02:08:55 5,6 592
626 465 CHOCOT SYLVAIN MSE 392 ESCAPADE ERDF 02:08:55 5,6 593
627 1859 SOUCHAUD CLEMENT MJU 7 LES MOIJ ' MENBRANLES 02:08:56 5,6 594
628 763 FAURE JEAN FRANCOIS MSE 393 ESCAPADE ERDF 02:08:59 5,6 595
629 412 CHAMPLOT FREDERIC MV1 130   02:09:03 5,6 596
630 980 GUÉRIN JONATHAN MSE 394 SUD FOOT 71 N°1 02:09:03 5,6 597
631 1043 HERRMANN LIONEL MSE 395   02:09:06 5,6 598
632 1627 POULAIN EMMANUEL MSE 396   02:09:07 5,6 599
633 64 AUGE JEAN-DANIEL MSE 397   02:09:08 5,6 600
634 1169 LAMOINE ANTHONY MSE 398   02:09:11 5,6 601
635 143 BENECH FLORENT MSE 399 BOOSTER 02:09:11 5,6 602
636 1103 JOMBART FREDERIC MV1 131 LES MOIJ ' MENBRANLES 02:09:18 5,6 603
637 753 FARGES BENOIT MSE 400 BOOSTER 02:09:24 5,6 604
638 89 BARBE JEAN PIERRE MV2 27   02:09:25 5,6 605
639 836 GAIGNOUX SYLVAIN MV1 132   02:09:27 5,6 606
640 1745 RONZEL JEAN - MICHEL MSE 401   02:09:31 5,6 607
641 16 ALLEGRE SEBASTIEN MSE 402 HBCB 2 02:09:31 5,6 608
642 186 BESSET ROMAIN MSE 403 BANDANA 02:09:36 5,6 609
643 189 BESSON JULIEN MSE 404 SUD FOOT 71 N°1 02:09:44 5,5 610
644 1404 MONIER REMI MSE 405 BANDANA 02:09:45 5,5 611
645 1010 HAHN VALENTIN MSE 406   02:09:47 5,5 612
646 142 BENANI YACIN MSE 407   02:09:49 5,5 613
647 762 FAURE FRANCOIS MES 36   02:09:59 5,5 614
648 1178 LANJUIN CHRISTOPHE MSE 408 LES MOIJ ' MENBRANLES 02:10:02 5,5 615
649 1084 JANUSZ AURELIEN MSE 409   02:10:09 5,5 616
650 1083 JANUSZ CHRISTOPHE MSE 410   02:10:14 5,5 617
651 2004 VILPERT BENJAMIN MSE 411   02:10:18 5,5 618
652 832 GADET ISABELLE FV1 12   02:10:22 5,5 34
653 359 CANTAGREL BRUNO MV2 28   02:10:24 5,5 619
654 169 BERODY JEROME MV1 133   02:10:30 5,5 620
655 1646 PROVOT FLORIAN MSE 412 SUD FOOT 71 N°2 02:10:30 5,5 621
656 1429 MOULART HERVE MV2 29   02:10:33 5,5 622
657 13 ALIX JEREMY MSE 413   02:11:12 5,5 623
658 1161 LAFOLEY MATHIEU MSE 414   02:11:21 5,5 624
659 925 GLACHET AMÉLIE FSE 18   02:11:22 5,5 35
660 1060 HUNAULT VINCENT MSE 415   02:11:23 5,5 625
661 1604 PLANEIX RÉMI MSE 416   02:11:23 5,5 626
662 1941 TRIVES XAVIER MSE 417   02:11:23 5,5 627
663 1040 HERBIN JEAN-LUC MV1 134   02:11:29 5,5 628
664 1259 LLAMBRICH GEORGES MV1 135   02:11:31 5,5 629
665 1568 PEYNET REMI MSE 418   02:11:31 5,5 630
666 890 GENEIX YANN MES 37   02:11:32 5,5 631
667 1640 PRECIGOUT MICKAËL MSE 419   02:11:35 5,5 632
668 1653 PURSEIGLE FABIEN MSE 420   02:11:39 5,5 633
669 187 BESSEYRIAS CEDRIC MSE 421   02:11:40 5,5 634
670 1168 LAMOINE MICKAEL MSE 422   02:11:40 5,5 635
671 601 DELBOS MATHIEU MSE 423   02:11:40 5,5 636
672 428 CHARREYRON CHRISTOPHE MV1 136   02:11:44 5,5 637
673 1064 IACONA REMI MSE 424   02:11:47 5,5 638
674 711 DURBEC CHRISTOPHE MSE 425   02:11:47 5,5 639
675 1316 MARION GAETAN MSE 426   02:11:48 5,5 640
676 1799 SAINTIGNY YANNICK MSE 427   02:11:52 5,5 641
677 127 BEAUMEVIEILLE NICOLAS MSE 428   02:12:07 5,4 642
678 1172 LANDEMAINE PASCAL MV2 30   02:12:09 5,4 643
679 36 ANDRIEUX RÉMY MSE 429   02:12:13 5,4 644
680 1374 MESNARD STÉPHANE MSE 430   02:12:22 5,4 645
681 141 BELZ JUSTIN MSE 431   02:12:23 5,4 646
682 1596 PIRES KEVIN MSE 432   02:12:31 5,4 647
683 1276 LUCAS STÉPHANIE FSE 19   02:12:40 5,4 36
684 1547 PERRIN ANTHONY MSE 433   02:12:46 5,4 648
685 420 CHARBONNEL JULIEN MSE 434   02:12:50 5,4 649
686 687 DUCOING ROMAIN MSE 435   02:12:54 5,4 650
687 1502 PARENT ANTHONY MSE 436 VIEILLES PIPES 02:13:03 5,4 651
688 442 CHAUTARD LOIC MSE 437   02:13:04 5,4 652
689 1830 SEGUIN PIERRE MSE 438 RÉGION AUVERGNE 3 02:13:13 5,4 653
690 959 GRANET ERIC MV1 137 RÉGION AUVERGNE 3 02:13:14 5,4 654
691 96 BARGOIN ERIC MV1 138   02:13:17 5,4 655
692 1205 LE NEVE MATTHIEU MES 38   02:13:18 5,4 656
693 505 COQUET JONATHAN MSE 439   02:13:19 5,4 657
694 1608 PLOUVIN JEROME MSE 440   02:13:22 5,4 658
695 679 DUCHET MAXIME MES 39   02:13:24 5,4 659
696 1113 JUDE MAËL MSE 441   02:13:25 5,4 660
697 1791 RUSSIER HERVE MV1 139   02:13:33 5,4 661
698 1790 RUSSIER MICHELLE FV1 13   02:13:35 5,4 37
699 813 FOURNIER STEPHANE MV1 140 POMPIERS DE MONTBRISON 02:13:38 5,4 662
700 1266 LONGEROCHE JEAN MICHEL MSE 442   02:13:39 5,4 663
701 1074 JACOB FRÉDÉRIC MSE 443   02:13:50 5,4 664
702 250 BONNAIRE CYRIL MSE 444   02:13:53 5,4 665
703 1503 PARENTON-MARIDET JÉRÔME MSE 445   02:13:54 5,4 666
704 1265 LONGERE THIBAUT MSE 446 LES COCHONS EN FURIE 02:14:53 5,3 667
705 1378 MESSIOUX FRANCK MSE 447   02:14:59 5,3 668
706 85 BANCEL XAVIER MSE 448   02:15:00 5,3 669
707 1129 KLUSKA VINCENT MSE 449 LES 3 NAINS 02:15:03 5,3 670
708 1391 MIGNY SÉBASTIEN MSE 450   02:15:08 5,3 671
709 781 FICK MATTHIEU MSE 451   02:15:11 5,3 672
710 1121 KALIS MAARTEN MSE 452   02:15:12 5,3 673
711 1669 RAJOT JEAN EUDES MSE 453   02:15:13 5,3 674
712 670 DUBOIS THOMAS MSE 454   02:15:14 5,3 675
713 1222 LEGERON BENJAMIN MSE 455   02:15:15 5,3 676
714 284 BOURDAROT GUILLAUME MSE 456   02:15:20 5,3 677
715 392 CHABER OLIVIER MSE 457 LES BRAS CASSÉS 02:15:38 5,3 678
716 1271 LOUIS ESTÉBAN MSE 458 LES BRAS CASSÉS 02:15:44 5,3 679
717 888 GENDRE AURÉLIEN MSE 459 LES BRAS CASSÉS 02:15:44 5,3 680
718 1546 PERRIN MAXIME MSE 460   02:16:01 5,3 681
719 441 CHAUSSIN THIBAULT MSE 461   02:16:13 5,3 682
720 551 DAGAIN PHILIPPE MV1 141   02:16:15 5,3 683
721 440 CHAUSSIN NICOLAS MSE 462   02:16:17 5,3 684
722 390 CEYLAN BERKAN MSE 463   02:16:17 5,3 685
723 111 BATIFOULIER MÉLODIE FSE 20   02:16:19 5,3 38
724 1486 PAGES POALA FSE 21   02:16:19 5,3 39
725 1252 LICTEVOET JULIEN MSE 464   02:16:22 5,3 686
726 534 CRETIN CYRIL MSE 465   02:16:23 5,3 687
727 185 BESSET DAVID MSE 466   02:16:24 5,3 688
728 168 BERNIGAUD NICOLAS MSE 467   02:16:24 5,3 689
729 831 GABY CYRILLE MSE 468   02:16:26 5,3 690
730 1667 RAFFIER ADRIEN MSE 469   02:16:32 5,3 691
731 1657 QUENOT MARION FSE 22   02:16:39 5,3 40
732 435 CHATAING JULIEN MSE 470   02:16:41 5,3 692
733 2042 DECOURTY FRANCK MV1 142   02:16:42 5,3 693
734 515 CORREIA GAETAN MSE 471   02:16:44 5,3 694
735 674 DUBOST SÉBASTIEN MV1 143   02:16:48 5,3 695
736 1367 MENAGER NICOLAS MSE 472 LES PIOU PIOU 02:16:48 5,3 696
737 491 COLOGNESI DIDIER MV1 144   02:17:01 5,3 697
738 1024 HECQ-DELHAYE CÉDRIC MSE 473   02:17:20 5,2 698
739 635 DETRUIT CLAIRE FSE 23   02:17:23 5,2 41
740 636 DETRUIT DANIEL MV2 31   02:17:24 5,2 699
741 1922 TORQUET JEAN-PHILIPPE MSE 474   02:17:26 5,2 700
742 927 GLOMEAU JEAN FRANÇOIS MSE 475   02:17:32 5,2 701
743 941 GONZALES NICOLAS MJU 8   02:17:39 5,2 702
744 132 BÉGON JÉRÔME MV1 145   02:17:49 5,2 703
745 153 BENOIT BRICE MSE 476   02:17:49 5,2 704
746 2001 VILLENEUVE VINCENT MV1 146   02:17:49 5,2 705
747 719 EGUILLON MAXIME MSE 477   02:17:57 5,2 706
748 1011 HAILEMELEKOT SAMUEL MSE 478   02:18:00 5,2 707
749 652 DIZIER ANTOINE MSE 479   02:18:00 5,2 708
750 691 DUFFE ANGELICA FSE 24   02:18:00 5,2 42
751 1423 MORGE DAVID MSE 480   02:18:05 5,2 709
752 1584 PICHOT-MOISE THIERRY MSE 481   02:18:05 5,2 710
753 1585 PICHOT-MOISE PATRICK MV1 147   02:18:05 5,2 711
754 220 BLEZIO FRANCK MV1 148   02:18:19 5,2 712
755 171 BERRUE JACQUES MV3 1   02:18:42 5,2 713
756 1962 VALIN LAURENT MV1 149   02:18:50 5,2 714
757 818 FRANCES FREDERIC MV2 32   02:18:51 5,2 715
758 1102 JOHN FRANCK MSE 482   02:18:52 5,2 716
759 1519 PAYTRA YVON MSE 483   02:18:54 5,2 717
760 100 BARQUIN JEROME MV1 150   02:18:59 5,2 718
761 1761 ROURE SABINE FSE 25   02:19:05 5,2 43
762 731 ESCOLANO MICKAEL MSE 484   02:19:08 5,2 719
763 1164 LAGUILLAUMIE JULIETTE FSE 26   02:19:10 5,2 44
764 1483 OUZOUNIAN JEAN-PHILIPPE MSE 485   02:19:28 5,2 720
765 1107 JOURDA JESSICA FES 5   02:19:28 5,2 45
766 1924 TOUBIN EDITH FSE 27   02:19:30 5,2 46
767 761 FAURE NICOLAS MSE 486   02:19:31 5,2 721
768 245 BONAMY CORINNE FV1 14   02:19:34 5,2 47
769 1253 LIENARD DAVID MV1 151   02:19:45 5,2 722
770 769 FEREROL DAVID MSE 487   02:19:56 5,1 723
771 1575 PHLIPPOTEAU FRANÇOIS MSE 488 LA FINE ÉQUIPE 2 02:20:00 5,1 724
772 1532 PEREIRA SANTO MATHIEU MSE 489   02:20:13 5,1 725
773 1698 RIBEYRON SEBASTIEN MV1 152   02:20:27 5,1 726
774 403 CHALAYER MATHIEU MSE 490   02:20:31 5,1 727
775 2030 ZACHARIE MATHIEU MSE 491   02:20:36 5,1 728
776 893 GENET LUC MSE 492   02:20:45 5,1 729
777 2036 ZIOINI SOFIA FSE 28   02:20:49 5,1 48
778 1953 VACHER DAMIEN MSE 493   02:20:52 5,1 730
779 1268 LOPEZ KARINE FSE 29   02:20:57 5,1 49
780 879 GAUTIER NOEMIE ANNICK FSE 30 S.M.A 02:20:59 5,1 50
781 1875 SYGIEL SEBASTIEN MSE 494 S.M.A 02:21:01 5,1 731
782 1684 REBOIS KAREN FSE 31   02:21:12 5,1 51
783 1278 LUCENAY AURELIE FSE 32   02:21:14 5,1 52
784 1340 MAS ROLAND MSE 495   02:21:15 5,1 732
785 1683 REBOIS PRISCA FSE 33   02:21:18 5,1 53
786 1616 PONIN CHRISTOPHE MSE 496 LES BECS A FOIN 2 02:21:26 5,1 733
787 671 DUBOIS MICHEL MV2 33   02:21:26 5,1 734
788 1025 HEIMBURGER GEOFFREY MSE 497   02:21:26 5,1 735
789 1508 PASQUIER DAVID MSE 498   02:21:27 5,1 736
790 1441 MOYSSET LAURENT MV1 153   02:21:37 5,1 737
791 1739 ROLLOT STANISLAS MSE 499   02:21:43 5,1 738
792 385 CAZAL JEAN-PATRICK MV2 34   02:21:45 5,1 739
793 592 DEFER GUILLAUME MSE 500   02:22:03 5,1 740
794 862 GARCIA EDOVIC MSE 501   02:22:08 5,1 741
795 276 BOUDIN BRUNO MV1 154   02:22:10 5,1 742
796 86 BANNE KATIA FSE 34   02:22:18 5,1 54
797 702 DUPERRON DOMINIQUE MV1 155   02:22:29 5,1 743
798 473 CHOUZY FRANCK MSE 502   02:22:32 5,1 744
799 1399 MOITRIEUX NORBERT MV2 35   02:22:48 5,0 745
800 353 CAMBIAYRE CHRISTOPHE MV1 156   02:22:49 5,0 746
801 1921 TOMCZAK BENOIT MV1 157   02:22:50 5,0 747
802 1787 ROZIERES JEAN MARC MV1 158   02:22:51 5,0 748
803 1716 ROBERT LILIAN MV1 159   02:22:51 5,0 749
804 907 GEY GUILLAUME MSE 503   02:22:52 5,0 750
805 499 CONNAN THIERRY MV1 160   02:23:02 5,0 751
806 1096 JIMONET ALEXANDRE MSE 504   02:23:07 5,0 752
807 340 BURAIS RAPHAEL MSE 505   02:23:46 5,0 753
808 2009 VINCENT MATTHIEU MSE 506 LA FINE ÉQUIPE 2 02:23:55 5,0 754
809 1351 MAUCCI ANTONY MSE 507   02:23:55 5,0 755
810 1225 LEHEU FLORINE FJU 1   02:23:57 5,0 55
811 1224 LEHEU CHRISTOPHE MV1 161   02:23:57 5,0 756
812 507 COQUILLAT MICKAEL MSE 508   02:23:58 5,0 757
813 179 BESNAULT JOHAN MSE 509   02:24:01 5,0 758
814 256 BONNET ANTHONY MSE 510   02:24:15 5,0 759
815 130 BECOUSE ARNAUD MSE 511   02:24:43 5,0 760
816 591 DECOURTY CLEMENT MSE 512   02:24:56 5,0 761
817 830 GABRIELLI MORGAN MSE 513 LES 77 02:24:59 5,0 762
818 614 DEMAY JEROME MSE 514   02:24:59 5,0 763
819 567 DAVID MAXIME MSE 515   02:25:00 5,0 764
820 1751 ROUAS ANTHONY MSE 516   02:25:03 5,0 765
821 230 BOHIC GERARD MV2 36   02:25:06 5,0 766
822 660 DONDEL YANN MSE 517   02:25:20 5,0 767
823 1329 MARTIN MATHIEU MSE 518   02:25:22 5,0 768
824 229 BOHIC CORENTIN MJU 9 LES 77 02:25:22 5,0 769
825 28 AMPRINO FABRICE MSE 519   02:25:24 5,0 770
826 232 BOHIC EYMERIC MSE 520   02:25:24 5,0 771
827 659 DONDEL FRANCOIS MV1 162   02:25:27 5,0 772
828 294 BOURGOIN VIVIEN MSE 521   02:25:37 4,9 773
829 156 BERGER MAXIME MSE 522   02:25:40 4,9 774
830 217 BLATEYRON MICKAEL MSE 523 POMPIERS DE MONTBRISON 02:25:46 4,9 775
831 692 DUFLOUX JEAN-MARC MV1 163   02:26:18 4,9 776
832 939 GONDARD ERIC MV1 164   02:26:18 4,9 777
833 358 CANTAGREL JULIEN MSE 524   02:26:20 4,9 778
834 2020 VOIRET PHILIPPE MV2 37   02:26:23 4,9 779
835 458 CHEVILLARD FABRICE MV1 165   02:26:25 4,9 780
836 1993 VICET ETIENNE MSE 525   02:26:32 4,9 781
837 840 GAILLARD ROMAIN MSE 526   02:26:33 4,9 782
838 1223 LEGRET VINCENT MSE 527   02:26:34 4,9 783
839 1005 GUYOMAR RAPHAÉL MSE 528   02:26:38 4,9 784
840 1104 JOSEPH DAMIEN MSE 529   02:26:45 4,9 785
841 624 DESFRAY SEBASTIEN MSE 530   02:26:47 4,9 786
842 784 FILLONNEAU STEPHAN MSE 531   02:27:02 4,9 787
843 307 BOUYDRON NICOLAS MSE 532   02:27:03 4,9 788
844 1403 MONDIERE PASCAL MV2 38   02:27:19 4,9 789
845 1061 HUOT-MARCHAND MARYLENE FSE 35   02:27:19 4,9 56
846 1111 JUBAN SÉBASTIEN MSE 533   02:27:20 4,9 790
847 31 ANAVOISARD DOMINIQUE FV2 2   02:27:21 4,9 57
848 861 GARCIA OLIVIER MV1 166   02:27:22 4,9 791
849 1556 PESTANA DINIZ JÉRÔME MSE 534   02:27:22 4,9 792
850 462 CHICHPORTICH JAMES MSE 535   02:27:29 4,9 793
851 29 ANAVOISARD JULIE FSE 36   02:27:43 4,9 58
852 1116 JULIEN BERTRAND MSE 536   02:28:07 4,9 794
853 1793 SADIN CLAUDE MV1 167   02:28:26 4,9 795
854 1984 VERNADAT ALINE FSE 37   02:28:27 4,8 59
855 375 CASTAGNAC ALINE FSE 38   02:28:30 4,8 60
856 1390 MIGNE STEPHANE MSE 537   02:28:31 4,8 796
857 73 BABOU REBECCA FSE 39   02:28:38 4,8 61
858 1242 LEROY MATHIEU MSE 538   02:28:41 4,8 797
859 1831 SEGUY EMILIE FSE 40   02:28:43 4,8 62
860 732 ESCRIVA-PEIGNOT CEDRIC MSE 539   02:28:49 4,8 798
861 71 AYRINHAC JEAN PAUL MV2 39   02:28:54 4,8 799
862 1813 SARRAZIN ERIC MV2 40   02:28:55 4,8 800
863 535 CREYSSELS ARNAUD MSE 540   02:28:58 4,8 801
864 2003 VILLERET FABRICE MV1 168   02:28:58 4,8 802
865 1677 RAY LUDOVIC MV1 169   02:29:04 4,8 803
866 30 ANAVOISARD SAMUEL MSE 541   02:29:16 4,8 804
867 728 ERICK SEBASTIEN MSE 542   02:29:40 4,8 805
868 1247 LEYNAUD JENNIFER FSE 41 LES VAUVERDOISES 02:29:48 4,8 63
869 703 DUPLOMB SYLVAIN MSE 543   02:29:51 4,8 806
870 1194 LAVALADE BRUNO MV1 170   02:29:59 4,8 807
871 1470 NOUVET SOPHIE FSE 42   02:29:59 4,8 64
872 682 DUCHEZ ADELINE FSE 43   02:29:59 4,8 65
873 1142 LABROSSE MARC MES 40   02:30:00 4,8 808
874 1951 TUR DENIS MV1 171   02:30:01 4,8 809
875 1925 TOUNISSOUX ARNAUD MSE 544   02:30:03 4,8 810
876 1561 PETIT HUBERT MSE 545   02:30:03 4,8 811
877 1401 MONAT JULIEN MSE 546   02:30:03 4,8 812
878 1385 MICHAUD VINCENT MSE 547   02:30:03 4,8 813
879 1023 HEBRAUD JÉRÉMY MSE 548   02:30:03 4,8 814
880 368 CARPENTIER MATHIEU MSE 549   02:30:03 4,8 815
881 1226 LEITAO JULIE FSE 44   02:30:03 4,8 66
882 1435 MOULINIER CAMILLE FSE 45   02:30:03 4,8 67
883 1536 PERIE MAUD FSE 46   02:30:03 4,8 68
884 216 BLANCHON CHRISTELLE FSE 47   02:30:04 4,8 69
885 225 BLONDY CHRISTOPHE MV1 172 VALEO 02:30:05 4,8 816
886 1422 MORELLON THIERRY MV1 173   02:30:07 4,8 817
887 1613 PONCELET JULIE FSE 48   02:30:18 4,8 70
888 1586 PIERRE VINCENT MSE 550   02:30:18 4,8 818
889 176 BERTHOLET REMI MSE 551   02:30:20 4,8 819
890 1978 VENOSINO LAETITIA FSE 49   02:30:30 4,8 71
891 54 ASTRUC SYLVIE FSE 50 LES TAQUICARDES 1 02:30:30 4,8 72
892 1047 HILAIRE FREDERIC MSE 552   02:30:31 4,8 820
893 512 CORNUBET JÉRÉMIE MSE 553   02:30:33 4,8 821
894 295 BOURLON MATHILDE FSE 51   02:30:33 4,8 73
895 401 CHALARD JEROME MSE 554   02:30:46 4,8 822
896 106 BARROUX LAURENT MV1 174   02:30:46 4,8 823
897 1964 VALLADIER PAUL MSE 555 A FONT ROBERT 02:30:58 4,8 824
898 798 FONTROBERT ANDRÉ MV2 41 A FONT ROBERT 02:31:00 4,8 825
899 394 CHABRIER JONATHAN MSE 556   02:31:10 4,8 826
900 1969 VASSEUR MICHAEL MSE 557   02:31:19 4,8 827
901 243 BOLLA YVES MV1 175 LES TIPULES 02:31:21 4,8 828
902 166 BERNE THIERRY MV1 176 LES TIPULES 02:31:21 4,8 829
903 459 CHEVILLARD SANDRINE FV1 15   02:31:47 4,7 74
904 81 BAIN XAVIER MSE 558   02:31:49 4,7 830
905 553 DALIAOUI YOUNESS MSE 559   02:31:50 4,7 831
906 1304 MANGEARD HERVE MV1 177   02:31:51 4,7 832
907 623 DESFONTAINE ARNAUD MSE 560   02:31:52 4,7 833
908 210 BLANCHARD MARION FSE 52   02:31:57 4,7 75
909 856 GANIVET CÉCILE FSE 53   02:32:00 4,7 76
910 182 BESSET SEVERINE FSE 54   02:32:01 4,7 77
911 191 BESSON RICHARD MV1 178   02:32:06 4,7 834
912 476 CITERNE ROMAIN MSE 561   02:32:10 4,7 835
913 477 CITERNE STEPHANIE FSE 55   02:32:15 4,7 78
914 857 GANIVET NADÈGE FSE 56   02:33:10 4,7 79
915 211 BLANCHARD BENEDICTE FSE 57   02:33:10 4,7 80
916 48 ARSAC STÉPHANE MV1 179   02:33:18 4,7 836
917 18 ALLIBERT VIRGINIE FSE 58   02:33:19 4,7 81
918 417 CHAPET ROMUALD MSE 562   02:33:24 4,7 837
919 1952 UGONNET PASCAL MV1 180   02:33:27 4,7 838
920 1520 PÉAN LOIC MSE 563   02:33:29 4,7 839
921 1325 MARTIN MARC MSE 564   02:33:43 4,7 840
922 1326 MARTIN PIERRE MJU 10   02:33:45 4,7 841
923 1324 MARTIN GUILLAUME MSE 565   02:33:46 4,7 842
924 697 DUMAZET CATHIE FSE 59   02:33:52 4,7 82
925 107 BARTHAZARD PAULINE FSE 60   02:34:14 4,7 83
926 1202 LE BON PHILIPPE MV1 181 MARGOUILLAT 03 - 1 02:34:16 4,7 843
927 329 BRUANDET FREDERIC MV1 182   02:34:34 4,7 844
928 287 BOURDIER SYLVIE FV2 3   02:34:40 4,7 84
929 902 GERNEZ HERVÉ MV2 42 LES OIES SAUVAGES 02:35:00 4,6 845
930 1004 GUYADER RAYMOND MV3 2 LES OIES SAUVAGES 02:35:01 4,6 846
931 1795 SAHUT FRANCOISE FV1 16 LES LUCIOLES 02:35:02 4,6 85
932 1747 ROSE KATIA FV1 17 LES LUCIOLES 02:35:14 4,6 86
933 889 GENDREAU OLIVIER MSE 566   02:35:37 4,6 847
934 1571 PEYRON OLIVIER MV1 183   02:35:41 4,6 848
935 661 DONNAT JULIEN MSE 567   02:35:51 4,6 849
936 1360 MECHIN VERONIQUE FSE 61   02:35:52 4,6 87
937 619 DERUYTERE VINCENT MSE 568   02:35:53 4,6 850
938 193 BETHULEAU YANN MSE 569   02:35:53 4,6 851
939 487 COLAS YVON MV2 43 LES DURS À CUIRE 02:36:21 4,6 852
940 833 GAGLIANO ALPHONSE MV1 184   02:36:48 4,6 853
941 795 FONTARENSKY MIKAEL MSE 570   02:36:49 4,6 854
942 1354 MAURICIO ISABELLE FSE 62   02:36:50 4,6 88
943 1769 ROUSSEL FABIEN MSE 571   02:36:51 4,6 855
944 1956 VACHETTE SANDRA FES 6   02:37:02 4,6 89
945 1048 HILALI AYMERIC MV2 44   02:37:19 4,6 856
946 1880 TANNEAU JOEL MV2 45   02:37:19 4,6 857
947 829 FRUTEAU MICHAEL MSE 572   02:37:21 4,6 858
948 1515 PAULEAU CHRISTOPHE MSE 573   02:37:22 4,6 859
949 74 BADOC YANNICK MV1 185   02:37:42 4,6 860
950 115 BAUBIL BENOIT MSE 574   02:37:44 4,6 861
951 503 CONTE STÉPHANE MSE 575   02:37:53 4,6 862
952 1693 REVOUY NICOLAS MSE 576   02:37:54 4,6 863
953 1955 VACHETTE YANNICK MSE 577   02:38:08 4,6 864
954 490 COLLINET CHRISTOPHE MSE 578   02:38:08 4,6 865
955 213 BLANCHARD MICHAEL MSE 579   02:38:08 4,6 866
956 155 BERGER THIERRY MV1 186   02:38:17 4,5 867
957 1181 LANOUE GREGORY MJU 11   02:38:41 4,5 868
958 1446 NASSEF JONATHAN MES 41   02:39:11 4,5 869
959 1762 ROUSSEAU NICOLAS MSE 580   02:39:12 4,5 870
960 994 GUILLARD FLORENT MSE 581   02:39:13 4,5 871
961 849 GALLICO XAVIER MSE 582   02:39:14 4,5 872
962 1658 QUENTRIC ADRIEN MSE 583   02:39:14 4,5 873
963 1457 NIEDERDRAING JONATHAN MSE 584   02:39:14 4,5 874
964 786 FLAUGERE ALEXIS MES 42   02:39:14 4,5 875
965 1759 ROURE JEAN CLAUDE MV2 46   02:39:17 4,5 876
966 978 GUÉGAN ELODIE FSE 63   02:39:22 4,5 90
967 1629 POUPENEY FABIENNE FV1 18 REGION AUVERGNE 2 02:39:24 4,5 91
968 1906 THIEFAINE FLORIAN MSE 585 LES SHARKS DE VILLARS 02:39:25 4,5 877
969 686 DUCLOS RÉMI MSE 586   02:39:27 4,5 878
970 1480 ORTOLA DAMIEN MSE 587   02:39:37 4,5 879
971 1872 SUGIER CAROLE FES 7   02:39:47 4,5 92
972 1620 PORTENART THOMAS MSE 588   02:39:49 4,5 880
973 1970 VASSEUR GILLES MSE 589   02:40:00 4,5 881
974 880 GAUTIER PIERRE MSE 590   02:40:18 4,5 882
975 1622 POTET JÉROME MSE 591   02:40:21 4,5 883
976 1938 TRIOMPHE MANU MV1 187   02:40:28 4,5 884
977 1445 NAHIRNYJ VALERIE FSE 64 LES SAUCISSES 02:40:33 4,5 93
978 1829 SEGUIN FRANCE FSE 65 LES SAUCISSES 02:40:33 4,5 94
979 948 GOURDON ISABELLE FSE 66 LES SAUCISSES 02:40:33 4,5 95
980 1262 LOISON DAVID MV1 188   02:40:51 4,5 885
981 1349 MATTEI AMANDINE FSE 67   02:41:23 4,5 96
982 1524 PEILLON CHRISTELLE FSE 68   02:41:24 4,5 97
983 937 GONCALVES JOSE MV1 189   02:41:31 4,5 886
984 2026 WILLAME CHRISTOPHE MV1 190   02:41:32 4,5 887
985 1837 SERAN CHRISTELE FV1 19   02:41:32 4,5 98
986 194 BEX ALINE FSE 69   02:41:33 4,5 99
987 1838 SERAN LUDOVIC MSE 592   02:41:36 4,5 888
988 1201 LAZAAR HAKIM MSE 593   02:41:47 4,5 889
989 690 DECHELOTTE SANDRINE FV1 20   02:41:48 4,4 100
990 1454 NICOLAS ANNE-ALEXANDRA FSE 70 LES DRÔLES DE DAMES 02:42:12 4,4 101
991 1580 PICHON MARIE FSE 71 LES DRÔLES DE DAMES 02:42:14 4,4 102
992 393 CHABOSSON JEAN-JACQUES MV2 47   02:42:15 4,4 890
993 1186 LARROQUE PHILIPPE MSE 594   02:42:22 4,4 891
994 544 DA COSTA DUARTE MV1 191   02:42:43 4,4 892
995 1366 MELZANI LUDOVIC MV1 192   02:43:11 4,4 893
996 639 DEVAUX CEDRIC MSE 595   02:43:13 4,4 894
997 323 BRIQUET MICKAEL MSE 596   02:43:15 4,4 895
998 1210 LEBEL ANNE FSE 72   02:43:15 4,4 103
999 1541 PERONNIN CINDY FSE 73   02:43:15 4,4 104
1000 549 DA SILVA JACKY MSE 597   02:43:18 4,4 896
1001 1581 PICHOT NICOLAS MSE 598   02:43:18 4,4 897
1002 1870 SUBRA CYRIL MSE 599   02:43:36 4,4 898
1003 1871 SUBRA MAUD FSE 74   02:43:37 4,4 105
1004 75 BADOL VINCENT MV1 193   02:43:37 4,4 899
1005 105 BARRIQUAND LUDOVIC MV1 194   02:44:09 4,4 900
1006 704 DUPLUS FABIEN MSE 600   02:44:26 4,4 901
1007 1127 KLOTZ THOMAS MSE 601   02:44:27 4,4 902
1008 1322 MARRAOUI WISSAM MSE 602   02:44:31 4,4 903
1009 1825 SCHMIDT BÉRENGÈRE FSE 75 TEAM ZÉNITH 02:44:34 4,4 106
1010 643 DHUMES JEROME MV1 195   02:44:35 4,4 904
1011 1282 LY PENG NITHIA MSE 603 TEAM ZÉNITH 02:44:36 4,4 905
1012 266 BOUALI SAMMY MSE 604 TEAM ZÉNITH 02:44:37 4,4 906
1013 1734 RODRIGUEZ REMI MSE 605 BARBOVENT 02:45:00 4,4 907
1014 970 GREZE CÉRICE MV1 196   02:45:03 4,4 908
1015 148 BENKHORIS LOIC MSE 606   02:45:04 4,4 909
1016 717 EGEA CHRISTOPHE MSE 607 BARBOVENT 02:45:06 4,4 910
1017 376 CASTANHEIRA SERGIO MSE 608   02:45:08 4,4 911
1018 981 GUERRA MAGALI FSE 76   02:45:08 4,4 107
1019 1232 LEMOINE SERGE MV1 197   02:45:09 4,4 912
1020 1933 TRAMBOUZE AMANDINE FSE 77   02:45:11 4,4 108
1021 1986 VEYRAT LAURENCE FV1 21   02:45:19 4,4 109
1022 1504 PARIS AURORE FSE 78 LES RICAINES 02:45:26 4,4 110
1023 133 BEGUIN LUDOVIC MSE 609 COMICS1 02:45:45 4,3 913
1024 1897 TEYSSOT FABIEN MSE 610 COMICS1 02:45:45 4,3 914
1025 561 DAUGUET OLIVIER MV1 198 COMICS1 02:45:45 4,3 915
1026 1288 MAGNIN FABRICE MSE 611   02:46:01 4,3 916
1027 1158 LAFARGE NELLY FSE 79   02:46:13 4,3 111
1028 785 FILOCHE FRANCK MSE 612   02:46:26 4,3 917
1029 1100 JODAR OLIVIER MSE 613   02:46:26 4,3 918
1030 455 CHEVALLIER THOMAS MSE 614   02:46:27 4,3 919
1031 1376 MESSI LYDIA FSE 80 LES RICAINES 02:46:33 4,3 112
1032 1714 RIVIERE TONI MV1 199 CANADIEN 3 02:46:55 4,3 920
1033 1715 RIVIERE ANGELIQUE FSE 81   02:46:56 4,3 113
1034 1057 HUGON ANTOINE MSE 615   02:47:06 4,3 921
1035 297 BOURRACHOT GYSLAIN MSE 616   02:47:08 4,3 922
1036 575 DE QUEIROS JOSÉ MV1 200   02:47:46 4,3 923
1037 63 AUGAUDY PHILIPPE MSE 617 CANADIEN 2 02:47:55 4,3 924
1038 1274 LUCAS JEAN-BAPTISTE MSE 618   02:48:27 4,3 925
1039 1618 PONT ALBERT MV1 201 POMPIERS DE MONTBRISON 02:48:33 4,3 926
1040 364 CARBONNIER FRANÇOIS MSE 619   02:48:40 4,3 927
1041 2011 VINCENT HERVÈ MSE 620 POMPIERS DE MONTBRISON 02:48:45 4,3 928
1042 1721 ROBIN HELENE FSE 82   02:49:24 4,3 114
1043 887 GELY CEDRIC MSE 621   02:49:39 4,2 929
1044 1273 LUCAS CHRISTIAN MV2 48   02:49:40 4,2 930
1045 1143 LABRUT HUGO MSE 622   02:49:46 4,2 931
1046 1334 MARTIN JULIEN MSE 623   02:49:51 4,2 932
1047 198 BIDET JULIEN MSE 624   02:50:17 4,2 933
1048 996 GUILLAUME FABIEN MSE 625   02:50:46 4,2 934
1049 2029 YCHARD MARC MV1 202 LES POTES 02:50:46 4,2 935
1050 1679 RAYNAL FRANCIS MV2 49 LES POTES 02:50:47 4,2 936
1051 1087 JEAN BAPTISTE CYRIL MSE 626   02:50:50 4,2 937
1052 587 DEBONNE JEAN LUC MV1 203 LES POTES 02:50:51 4,2 938
1053 413 CHANDEYSSON FRÉDÉRIC MSE 627   02:50:53 4,2 939
1054 1737 ROLLAND RÉMI MSE 628   02:50:55 4,2 940
1055 1842 SERRES MICHEL MSE 629 POMPIERS du Tricastin 02:51:16 4,2 941
1056 478 CIVET MATHIEU MSE 630   02:51:29 4,2 942
1057 1896 TESNIERE ASTRID FSE 83   02:53:04 4,2 115
1058 1528 PELTIER FANNY FSE 84 LES RINOCÉROS 02:53:05 4,2 116
1059 1594 PIQUE LAURENT MV1 204 LES RINOCEROS 02:53:05 4,2 943
1060 1995 VIDAL ARNAUD MSE 631 POMPIERS MONTAUBEROU 02:53:06 4,2 944
1061 1456 NICOLLO SÉVERINE FV1 22 LES MOUFLARDS 02:53:11 4,2 117
1062 822 FRANCOIS JULIE FSE 85 LES RICAINES 02:53:28 4,2 118
1063 540 CUNY NICOLAS MSE 632   02:53:39 4,1 945
1064 206 BLACHON ROGER MV2 50 LES LOULOUTES 02:54:04 4,1 946
1065 1992 VIARD FRED MSE 633 LES LOULOUTES 02:54:04 4,1 947
1066 1427 MOUCHOT OLIVIER MV1 205   02:54:06 4,1 948
1067 1959 VALENTIN JACQUES MV2 51   02:54:07 4,1 949
1068 2022 WARTON HERVÉ MV1 206   02:54:07 4,1 950
1069 945 GOUDET MICHEL MV1 207   02:54:07 4,1 951
1070 1876 TAINE JEROME MSE 634 POMPIERS ST VALLIER 02:54:07 4,1 952
1071 944 GOUDET FABIENNE FV1 23   02:54:09 4,1 119
1072 306 BOUVIER YOHANN MES 43 POMPIERS ST VALLIER 02:54:09 4,1 953
1073 1968 VASCHALDE JEAN JACQUES MSE 635 LES TAFIOLLES 02:54:15 4,1 954
1074 1215 LEBRAT LUDOVIC MSE 636   02:54:24 4,1 955
1075 34 ANDRIANASOLO AUDREY FES 8   02:54:26 4,1 120
1076 181 BESSARD ARNAUD MSE 637   02:54:47 4,1 956
1077 87 BARADEL SEBASTIEN MSE 638 LA BOLOSS ' TEAM 02:54:54 4,1 957
1078 1689 RENAUD JULIEN MSE 639 LES BONGROCOCHONS 02:54:59 4,1 958
1079 668 DROUX MARINE FSE 86 CANADIEN 2 02:55:02 4,1 121
1080 986 GUICHARD FREDERIC MSE 640 CANADIEN 3 02:55:02 4,1 959
1081 1285 MAESEELE BENJAMIN MSE 641 CANADIEN 1 02:55:05 4,1 960
1082 1713 RIVET THOMAS MES 44   02:55:07 4,1 961
1083 1639 PRE STEPHANE MV1 208 TRICASTIN 1 02:55:17 4,1 962
1084 1775 ROUX JONATHAN MES 45 TRICASTIN 2 TEAM ROUX 02:55:18 4,1 963
1085 278 BOUGERDA MATTHIAS MSE 642   02:55:22 4,1 964
1086 1774 ROUX CHRISTOPHE MV1 209   02:55:25 4,1 965
1087 1777 ROUX QUENTIN MJU 12 TRICASTIN 2 TEAM ROUX 02:55:27 4,1 966
1088 1291 MAILLET LIONEL MV1 210 TRICASTIN 1 02:55:37 4,1 967
1089 617 DENIS IVANHOE MES 46   02:55:45 4,1 968
1090 500 CONSTANT YOAN MSE 643   02:55:46 4,1 969
1091 564 DAUZAT LORIANE FES 9   02:55:53 4,1 122
1092 24 ALZI FABIEN MSE 644   02:56:06 4,1 970
1093 1333 MARTIN JONATHAN MSE 645   02:56:06 4,1 971
1094 22 ALZI KEVIN MSE 646   02:56:06 4,1 972
1095 433 CHASSAGNE PATRICK MSE 647   02:56:10 4,1 973
1096 322 CHANTADUC MARIE-LAURE FV1 24   02:56:11 4,1 123
1097 1632 POUZADOUX SANDRINE FSE 87   02:56:13 4,1 124
1098 1845 SIKIRDJI JULIEN MSE 648 LES POMPIETTES 02:56:56 4,1 974
1099 1846 SIKIRDJI-SCHWOB DANIELE FSE 88 LES POMPIETTES 02:56:56 4,1 125
1100 222 BLIN XAVIER MV1 211   02:57:00 4,1 975
1101 1150 LACORNE PASCAL MV2 52 DOCKERS 02:57:02 4,1 976
1102 724 EL-BAH MEDHI MJU 13 LES POMPIETTES 02:57:03 4,1 977
1103 1506 PASCAL JEROME MSE 649 POMPIERS ST VALLIER 02:57:03 4,1 978
1104 27 AMERIO CHRISTOPHE MSE 650   02:57:04 4,1 979
1105 303 BOUTIN VICTOR MSE 651   02:57:07 4,1 980
1106 938 GONCALVES ANTHONY MSE 652 LES TAFIOLLES 02:57:14 4,1 981
1107 935 GONCALVES NORBERT MV2 53 LES LOULOUTES 02:57:15 4,1 982
1108 677 DUCHAND WILLIAM MSE 653   02:57:17 4,1 983
1109 1989 VIALETTE JEROME MSE 654 LES TAFIOLLES 02:57:20 4,1 984
1110 1021 HARDY JOHN MSE 655 DOCKERSLEHAVRE 02:57:38 4,1 985
1111 40 APARISI NICOLAS MSE 656   02:58:06 4,0 986
1112 555 DALLEVES ERIC MSE 657   02:58:13 4,0 987
1113 397 CHAHEN JEAN-FLORENT MES 47   02:58:17 4,0 988
1114 1700 RICHARD FRANÇOISE FV1 25   02:58:40 4,0 126
1115 1551 PERROCHON SIBILLE FV1 26   02:58:41 4,0 127
1116 1412 MONTOURCY SOPHIE FV1 27   02:58:56 4,0 128
1117 802 FOSSE EMMANUEL MV1 212   02:59:07 4,0 989
1118 1550 PERROCHON YANN MV1 213   02:59:09 4,0 990
1119 357 CANO CORALIE FSE 89   02:59:11 4,0 129
1120 772 FERNANDEZ JONATHAN MSE 658 LES ZANS CULEZ 02:59:20 4,0 991
1121 124 BEAL CÉLINE FSE 90 LES ZANS CULEZ 02:59:21 4,0 130
1122 1923 TOSTES DE SOUZA RAQUEL FSE 91 LES RAB 02:59:25 4,0 131
1123 1950 TUCHOWSKI ARNAUD MSE 659   02:59:25 4,0 992
1124 1447 NATIVEL DAMIEN MSE 660   02:59:58 4,0 993
1125 277 BOUDJELLOULI KHADIJA FSE 92   02:59:58 4,0 132
1126 1610 POINT FERREOL MSE 661   03:00:04 4,0 994
1127 1659 QUEYLAT CAROLE FSE 93   03:00:10 4,0 133
1128 736 ETOURNEAUD JEAN-CYRILLE MV1 214   03:00:12 4,0 995
1129 1153 LACROIX SEBASTIEN MSE 662   03:00:40 4,0 996
1130 134 BEJEAN CHRISTIAN MSE 663   03:00:45 4,0 997
1131 1555 PERTUS CHRISTINE FSE 94   03:01:00 4,0 134
1132 838 GAILLARD CHRISTIAN MSE 664   03:01:02 4,0 998
1133 1565 PETITJEAN ALAIN MV1 215   03:01:02 4,0 999
1134 1476 OLIVIER DOMINIQUE FSE 95   03:01:26 4,0 135
1135 93 BARD CEDRIC MSE 665   03:01:26 4,0 1000
1136 1886 TAURIAC MARIE-CHRISTINE FV1 28   03:01:27 4,0 136
1137 764 FAVENNEC ERWAN MV1 216   03:01:28 4,0 1001
1138 1475 OLIVIER ROBERT MSE 666   03:01:30 4,0 1002
1139 1430 MOULART SÉBASTIEN MSE 667   03:01:31 4,0 1003
1140 1431 MOULART JEAN-LUC MV2 54   03:01:31 4,0 1004
1141 510 CORMIER NOELLE FSE 96   03:02:04 4,0 137
1142 511 CORMIER YVES MSE 668   03:02:04 4,0 1005
1143 1720 ROBILLARD ADELINE FSE 97 A FONT ROBERTA 03:02:04 4,0 138
1144 1527 PELLICIER JONATHAN MSE 669   03:02:05 4,0 1006
1145 739 EYNARD STEVE MSE 670   03:02:06 4,0 1007
1146 1318 MARION VÉRONIQUE FV1 29   03:02:11 4,0 139
1147 1317 MARION MATHIEU MSE 671   03:02:12 4,0 1008
1148 797 FONTROBERT SOPHIE FSE 98 A FONT ROBERTA 03:02:13 4,0 140
1149 800 FONTROBERT NADÈGE FSE 99 A FONT ROBERTA 03:02:15 4,0 141
1150 200 BIENIASZEWSKI JEAN FRANCOIS MV1 217   03:02:22 3,9 1009
1151 118 BAUDRAND PHILIPPE MV1 218   03:02:32 3,9 1010
1152 119 BAUDRAND CHRISTOPHE MSE 672   03:02:33 3,9 1011
1153 1664 RABIEJ STEFAN MV1 219   03:02:33 3,9 1012
1154 347 CADRO ELODIE FSE 100   03:02:40 3,9 142
1155 1749 ROSSIER LAURENT MSE 673 LES COMPERES 03:04:37 3,9 1013
1156 1741 RONCE PIERRE MSE 674   03:04:49 3,9 1014
1157 1702 RIFFAUD NICOLAS MSE 675 HBCB 1 03:04:56 3,9 1015
1158 1249 LIANO ROMARYC MSE 676 HBCB 1 03:04:57 3,9 1016
1159 320 BRIGNON AURORE FSE 101   03:05:19 3,9 143
1160 321 BRIGNON FABIENNE FSE 102   03:05:19 3,9 144
1161 319 BRIGNON GILLES MSE 677   03:05:20 3,9 1017
1162 98 BARJON YOAN MSE 678   03:05:22 3,9 1018
1163 1152 LACOSTE ALEXANDRE MSE 679   03:05:29 3,9 1019
1164 1937 TRIBOULET AYMERIC MSE 680   03:05:29 3,9 1020
1165 718 EGLIZOT BLANDINE FSE 103   03:05:30 3,9 145
1166 21 ALMARCHA MARINE FSE 104 LES SOURIS DU 63 03:05:50 3,9 146
1167 1535 PEREZ ROMAIN MSE 681 LES TONTONS BRINGUEURS 03:05:50 3,9 1021
1168 1009 HADJ-BACHIR SABINE FSE 105 LES SOURIS DU 63 03:05:51 3,9 147
1169 2015 VITRY LOUIS MES 48 LES TONTONS BRINGUEURS 03:05:52 3,9 1022
1170 1182 LANOUX BAPTISTE MSE 682   03:05:54 3,9 1023
1171 658 DOMONT YOAN MSE 683   03:06:03 3,9 1024
1172 806 FOUCHER MATHIEU MSE 684   03:06:06 3,9 1025
1173 388 CERRAJERO BRUNO MV2 55   03:06:12 3,9 1026
1174 971 GRILLOT ANTHONY MSE 685   03:06:27 3,9 1027
1175 789 FLEURY GUILLAUME MSE 686   03:06:30 3,9 1028
1176 1218 LECORPS YOAN MSE 687   03:06:31 3,9 1029
1177 708 DURAN ANTONY MSE 688   03:06:47 3,9 1030
1178 1652 PUPIN FRANCOISE FV1 30 TOURISTES33 03:07:00 3,9 148
1179 252 BONNAT EMMANUEL MV1 220 TOURISTES33 03:07:01 3,8 1031
1180 152 BENOIT FABIENNE FSE 106 TOURISTES33 03:07:01 3,8 149
1181 854 GANAYE CHARLIE MSE 689 VENNECY3 03:07:40 3,8 1032
1182 1315 MARINHO PEDRO MV1 221   03:07:47 3,8 1033
1183 237 BOISSAY LAURENT MSE 690   03:07:50 3,8 1034
1184 1945 TRONCIN JORDAN MJU 14   03:09:04 3,8 1035
1185 305 BOUTRY SANDRA FSE 107 SP VILLENEUVE 3 03:09:04 3,8 150
1186 956 GOVIGNON ROMAIN MSE 691 SP VILLENEUVE 4 03:09:05 3,8 1036
1187 1007 GUYON VALENTIN MJU 15 SP VILLENEUVE 5 03:09:07 3,8 1037
1188 759 FAUCHER KEVIN MSE 692 SP VILLENEUVE 3 03:09:07 3,8 1038
1189 273 BOUCHE PASCAL MV1 222 SP VILLENEUVE 2 03:09:08 3,8 1039
1190 1254 LIMBERT CHARLOTTE FES 10 SP VILLENEUVE 5 03:09:09 3,8 151
1191 15 ALLARY ANTHONY MSE 693 SP VILLENEUVE 1 03:09:09 3,8 1040
1192 758 FAUCHER ALAIN MV2 56 SP VILLENEUVE 3 03:09:09 3,8 1041
1193 366 CARON ANNE-SOPHIE FSE 108   03:09:17 3,8 152
1194 286 BOURDEAUD ELODIE FSE 109   03:09:18 3,8 153
1195 1187 LARVIN PIERRE MSE 694   03:09:27 3,8 1042
1196 768 FAYOLLE FRANCK MSE 695   03:09:27 3,8 1043
1197 522 COURTET ALEXIA FSE 110 LES DINDES 03:09:27 3,8 154
1198 1733 RODRIGUEZ MYLÈNE FSE 111 LES DÉJANTÉS 03:09:28 3,8 155
1199 1073 JABY HENRI MV2 57 LES DÉJANTÉS 03:09:28 3,8 1044
1200 523 COURTET CELINE FSE 112 LES DINDES 03:09:37 3,8 156
1201 597 DELANNOY XAVIER MSE 696   03:10:10 3,8 1045
1202 1530 PERARD STEEVEN MSE 697   03:10:11 3,8 1046
1203 1873 SUMIAN JEAN-MARC MSE 698   03:10:12 3,8 1047
1204 1497 PAPON LAURENT MSE 699 LES DÉJANTÉS 03:10:13 3,8 1048
1205 1980 VERCHERE LUDOVIC MV1 223   03:10:13 3,8 1049
1206 1979 VERCHERE ARNAUD MSE 700   03:10:14 3,8 1050
1207 1230 LELONG GUILLAUME MSE 701   03:10:17 3,8 1051
1208 1379 MEUNIER LUC MSE 702   03:10:17 3,8 1052
1209 539 CUNAT ANAIS FSE 113   03:10:21 3,8 157
1210 1991 VIALLON CATHY FSE 114   03:10:24 3,8 158
1211 894 GENEVE CHRISTOPHE MSE 703 LES EVADES 03:10:29 3,8 1053
1212 1661 QUILLET PHILIPPE MSE 704 LES EVADES 03:10:31 3,8 1054
1213 895 GENIN PAULINE FES 11   03:10:42 3,8 159
1214 1879 TALMONT MATHILDE FES 12   03:10:43 3,8 160
1215 1500 PARDON MARYLENE FSE 115   03:11:31 3,8 161
1216 1523 PEILLON MARIE LINE FSE 116   03:11:31 3,8 162
1217 1574 PHILIBERT CAROLE FV1 31   03:11:36 3,8 163
1218 1459 NOALLY DANIELLE FV2 4   03:11:36 3,8 164
1219 1513 PATOIR ARMAND MSE 705 9 O'PLACK'S 1 03:12:21 3,7 1055
1220 470 CHOULET DAMIEN MSE 706 9 O'PLACK'S 1 03:12:22 3,7 1056
1221 584 DEBARGES ROMAIN MSE 707 9 O'PLACK'S 2 03:12:24 3,7 1057
1222 1533 PERET ADRIEN MSE 708 9 O'PLACK'S 2 03:12:24 3,7 1058
1223 178 BERTRAND GAËL MSE 709 9 O'PLACK'S 1 03:12:26 3,7 1059
1224 1615 PONCET CÉLINE FSE 117 9 O'PLACK'S 2 03:12:26 3,7 165
1225 955 GOUVEIA DOS SANTOS REIS JOAQUIM MV2 58   03:12:39 3,7 1060
1226 740 FABRE AURELIE FSE 118   03:12:47 3,7 166
1227 1123 KERNEIS OLIVIER MSE 710   03:12:47 3,7 1061
1228 345 CABOT MATHIEU MSE 711   03:12:48 3,7 1062
1229 1174 LANDREAU CHARLINE FSE 119   03:12:52 3,7 167
1230 236 BOISSARD JEAN-BAPTISTE MSE 712   03:13:21 3,7 1063
1231 579 DE ROSA OPHELIE FSE 120   03:13:29 3,7 168
1232 1863 STANG ELODIE FSE 121   03:14:43 3,7 169
1233 195 BIANCHI CAROLINE FSE 122   03:14:44 3,7 170
1234 247 BONHOMME MARINE FSE 123 LES GARDOIS 03:14:59 3,7 171
1235 1471 NOYER MAGALI FSE 124 LES VAUVERDOISES 03:15:01 3,7 172
1236 1578 PICAULT BARBARA FES 13   03:15:01 3,7 173
1237 898 GERBAUD ROMAIN MSE 713   03:15:01 3,7 1064
1238 672 DUBOISSET SONIA FSE 125   03:15:02 3,7 174
1239 2008 VINCENT ARNAUD MSE 714   03:15:03 3,7 1065
1240 1765 ROUSSEAU SEBASTIEN MSE 715   03:15:03 3,7 1066
1241 657 DOMERGUE VÉRONIQUE FV1 32   03:15:09 3,7 175
1242 501 CONTE FABIEN MV1 224   03:15:09 3,7 1067
1243 1250 LIBÉRATO VIRGINIE FSE 126   03:15:10 3,7 176
1244 1866 STOLER JULIEN MSE 716   03:15:11 3,7 1068
1245 1229 LELEZ LAURENT MV1 225   03:15:15 3,7 1069
1246 518 COSTES ERIC MSE 717   03:15:18 3,7 1070
1247 1392 MILDANGE MELISSA FSE 127   03:15:18 3,7 177
1248 1874 SWENDROWSKI SAMUEL MV1 226   03:15:18 3,7 1071
1249 1840 SERRANO YOANN MSE 718   03:15:49 3,7 1072
1250 648 DIGONNAUX JEOME MV1 227   03:15:50 3,7 1073
1251 1809 SANSOIT JEROME MSE 719   03:15:54 3,7 1074
1252 66 AURIER ROSELINE FSE 128   03:15:57 3,7 178
1253 942 GONZALES MURIELLE FES 14   03:15:59 3,7 179
1254 1754 ROUEL MARYSE FV2 5   03:16:00 3,7 180
1255 573 DE OLIVEIRA ELIANE FV2 6   03:16:00 3,7 181
1256 1645 PROVENCHERE KAREN FSE 129   03:16:02 3,7 182
1257 1753 ROUEL JENNIFER FSE 130   03:16:04 3,7 183
1258 1695 REY THOMAS MSE 720 RIO DE JANEIRO 03:16:06 3,7 1075
1259 839 GAILLARD JULIEN MSE 721   03:16:09 3,7 1076
1260 2021 VUONG MY LINH FSE 131   03:16:15 3,7 184
1261 1723 ROBIN BENOIT MSE 722 LES RAB 03:16:32 3,7 1077
1262 885 GAYTE EMMANUEL MSE 723   03:16:39 3,7 1078
1263 990 GUICHON MICHAEL MSE 724   03:17:10 3,7 1079
1264 1335 MARTINET AURORE MSE 725   03:17:10 3,7 1080
1265 1895 TERRIER VALERIE FV1 33   03:17:11 3,7 185
1266 989 GUICHON PASCAL MV2 59   03:17:11 3,7 1081
1267 743 FACY SEBASTIEN MV1 228 PROMPSAPEURS 03:17:49 3,6 1082
1268 1755 ROUGIER BRUNO MV1 229 PROMPSAPEURS 03:17:50 3,6 1083
1269 289 BOURDON XAVIER MSE 726   03:17:51 3,6 1084
1270 900 GERBON JEAN LUC MV2 60 PROMPSAPEURS 03:17:54 3,6 1085
1271 43 ARBRE MARIE FSE 132 LES KÉSJFOULÀ?! 03:18:01 3,6 186
1272 41 ARBRE DIDIER MV2 61   03:18:01 3,6 1086
1273 1712 RIVAUD AMANDINE FSE 133 LES KÉSJFOULÀ?! 03:18:03 3,6 187
1274 1967 VAPPEREAU FLORIAN MSE 727   03:18:21 3,6 1087
1275 616 DENIAU EMILIEN MSE 728   03:18:29 3,6 1088
1276 1537 PERIS LAURENT MSE 729 LES PESCALUNES 03:18:50 3,6 1089
1277 355 CANAL JULIEN MSE 730 LES PESCALUNES 03:18:51 3,6 1090
1278 350 CAILLAUD DELPHINE FSE 134 LES PESCALUNETTES 03:18:53 3,6 188
1279 1534 PEREZ LAURIE FSE 135   03:18:55 3,6 189
1280 207 BLANC EMMANUELLE FSE 136   03:19:02 3,6 190
1281 1726 ROCHE STEPHANE MSE 731   03:19:05 3,6 1091
1282 1070 IMPERINETTI YANNIS MV1 230   03:19:05 3,6 1092
1283 1576 PIANA AURORE FV1 34   03:19:13 3,6 191
1284 370 CARTAILLER EMILIE FSE 137   03:19:14 3,6 192
1285 39 ANTONIO AUDREY FSE 138 LES LUCIOLES 03:19:22 3,6 193
1286 1314 MARGIEWES SYLVAIN MSE 732   03:19:24 3,6 1093
1287 973 GROSS MATTHIEU MSE 733   03:19:24 3,6 1094
1288 1789 RUFFIER LAETITIA FSE 139   03:19:24 3,6 194
1289 1006 GUYOMARD EUGENIE FSE 140 LES BECS A FOIN 2 03:19:32 3,6 195
1290 1115 JULIEN CLAIRE FSE 141   03:19:32 3,6 196
1291 1118 JUMET SYLVAIN MSE 734 T1C 03:19:39 3,6 1095
1292 1260 LLITJOS MARIE ANNE FSE 142   03:19:40 3,6 197
1293 598 DELARBRE PIERRE-EMMANUEL MSE 735 T1C 03:19:41 3,6 1096
1294 263 BORDIER ANTHONY MSE 736   03:19:43 3,6 1097
1295 1861 SPINARD BENJAMIN MSE 737   03:19:51 3,6 1098
1296 1478 ORTHOLARY CATHLYNE FSE 143   03:20:01 3,6 198
1297 678 DUCHENE MATHIEU MSE 738   03:20:05 3,6 1099
1298 874 GAUDILLAT ROMAIN MSE 739   03:20:13 3,6 1100
1299 1824 SCHMID CAROLINE FSE 144   03:20:32 3,6 199
1300 1159 LAFAYE-PITAUD JULIE FSE 145 BOUDADA 03:21:15 3,6 200
1301 2010 VINCENT ARNAUD CHRISTOPHE MSE 740   03:21:15 3,6 1101
1302 1600 PITAUD ANTOINE MSE 741 BOUDADA 03:21:17 3,6 1102
1303 1416 MORALES PHILIPPE MV1 231   03:21:18 3,6 1103
1304 192 BESSON SEVERINE FSE 146   03:21:18 3,6 201
1305 1464 NOLY ALICE FES 15   03:21:18 3,6 202
1306 331 BRUGIERE - TAILLANDIER KARINE FV1 35   03:21:19 3,6 203
1307 1601 PITAUD LÉA FSE 147 BOUDADA 03:21:21 3,6 204
1308 1244 LEVASSEUR JEFFERSON MSE 742   03:21:53 3,6 1104
1309 1290 MAILLARD JEAN-CHRISTOPHE MSE 743   03:22:05 3,6 1105
1310 333 BRUMENT FLORIAN MSE 744   03:22:09 3,6 1106
1311 1277 LUCAS MATTHIEU MSE 745   03:22:12 3,6 1107
1312 516 COSANDEY DIMITRI MSE 746   03:22:28 3,6 1108
1313 299 BOUSQUET FLORENT MSE 747   03:22:28 3,6 1109
1314 811 FOURAGE SOPHIE FV1 36 LES PHACOCHERES 03:22:49 3,5 205
1315 468 CHOPART CATHERINE FV1 37 VENNECY2 03:22:50 3,5 206
1316 467 CHOPART FRANCOIS MV1 232 VENNECY2 03:22:50 3,5 1110
1317 612 DELPIROU CÉCILE FSE 148   03:22:50 3,5 207
1318 541 CUZOL CHRISTELLE FSE 149   03:22:51 3,5 208
1319 850 GALLIER CLEMENT MES 49 VENNECY3 03:22:51 3,5 1111
1320 1013 HAIS FABIEN MV1 233 LES PHACOCHERES 03:22:51 3,5 1112
1321 1748 ROSE ELODIE FSE 150   03:22:52 3,5 209
1322 1014 HAIS GAELLE FSE 151 VENNECY2 03:22:56 3,5 210
1323 126 BEAULIEU MATTHIEU MSE 748 LES PHACOCHERES 03:23:01 3,5 1113
1324 1439 MOURIER VINCENT MSE 749   03:23:06 3,5 1114
1325 1119 JUSSEAU PASCAL MV1 234   03:24:22 3,5 1115
1326 1120 JUSSEAU VALERIE FV1 38   03:24:23 3,5 211
1327 606 DELLA PELLE LIONEL MSE 750   03:24:24 3,5 1116
1328 909 GHESQUIERE FRÉDÉRIC MV1 235   03:24:24 3,5 1117
1329 582 DE VALLÉE AMÉLIE FSE 152   03:24:24 3,5 212
1330 414 CHANDIOUX PASCALE FV2 7   03:24:25 3,5 213
1331 330 BRUEL MARTIAL MV1 236   03:24:40 3,5 1118
1332 10 ALBERTO CÉCILE FSE 153   03:24:41 3,5 214
1333 226 BOBST CHARLES MSE 751   03:24:41 3,5 1119
1334 55 AUBERTIN GILLES MV3 3   03:24:51 3,5 1120
1335 745 FAILLET ANTHONY MSE 752   03:24:55 3,5 1121
1336 626 DESLAURIERS LAURA FES 16   03:24:56 3,5 215
1337 1402 MONCOUYOUX MARIE FSE 154   03:25:14 3,5 216
1338 1080 JAMET ERIC MSE 753   03:25:16 3,5 1122
1339 1815 SAUDOIS CHRISTOPHE MV1 237   03:25:22 3,5 1123
1340 78 BAHLOUL MYRIAM FSE 155   03:25:46 3,5 217
1341 1885 TARTIERE JEAN-JACQUES MV1 238 LE RETOUR DES LOUTRES 03:26:09 3,5 1124
1342 1344 MASSOUTIER JEAN-MICHEL MV1 239 LE RETOUR DES LOUTRES 03:26:09 3,5 1125
1343 968 GRELAUD STÉPHANIE FSE 156   03:26:15 3,5 218
1344 318 BRICHET EMILIE FSE 157   03:26:16 3,5 219
1345 596 DELAIR SEVERINE FSE 158   03:26:16 3,5 220
1346 967 GRELAUD CHRISTOPHE MSE 754   03:26:16 3,5 1126
1347 1988 VIAL CHRISTIAN MSE 755   03:26:16 3,5 1127
1348 1836 SENGENES GUILLAUME MSE 756   03:26:16 3,5 1128
1349 1015 HAMEL EUGENIE FES 17   03:26:39 3,5 221
1350 1835 SEMENT VINCENT MSE 757   03:26:39 3,5 1129
1351 1443 MURY JONATHAN MSE 758   03:27:20 3,5 1130
1352 1442 MURY MARYLINE FES 18   03:27:20 3,5 222
1353 351 CAILLOT CHRISTELLE FSE 159   03:27:21 3,5 223
1354 1330 MARTIN EMMANUELLE FV1 39   03:27:36 3,5 224
1355 326 BROUCHARD HERVÉ MSE 759   03:28:00 3,5 1131
1356 1030 HENRIOT BRYAN MES 50 LES BIZOM 03:28:13 3,5 1132
1357 1031 HENRIOT MICKAËL MSE 760 LES ZEUBI 03:28:13 3,5 1133
1358 520 COTTIN MATTHIAS MSE 761 LES RUNNING DEAD 03:28:15 3,5 1134
1359 519 COTTIN JONATHAN MSE 762 LES RUNNING DEAD 03:28:17 3,5 1135
1360 1028 HENRIOT ANAÏS FSE 160 LES BIZOM 03:28:23 3,5 225
1361 1029 HENRIOT MAEVA FSE 161 LES BIZOM 03:28:25 3,5 226
1362 1834 SEMENT PATRICK MV2 62   03:29:14 3,4 1136
1363 721 EHANNO NATHALIE FV1 40   03:29:14 3,4 227
1364 1833 SEMENT CHRISTELLE FV1 41   03:29:15 3,4 228
1365 1709 RIOULT CHRISTIAN MV1 240   03:29:16 3,4 1137
1366 1668 RAIMBAUD STEPHANE MSE 763   03:29:16 3,4 1138
1367 1711 RIOULT MARCEAU MSE 764 LA BOLOSS ' TEAM 03:29:36 3,4 1139
1368 1710 RIOULT KEVIN MSE 765   03:29:49 3,4 1140
1369 2032 ZAMORA INGRID FJU 2   03:29:56 3,4 229
1370 47 ARNAUD MARIE-LAURE FSE 162   03:30:16 3,4 230
1371 2034 ZEMENKO FREDERIC MV1 241   03:30:25 3,4 1141
1372 873 GAUDEL CORALIE FJU 3   03:30:45 3,4 231
1373 866 GARNERIN MARC MV1 242   03:30:57 3,4 1142
1374 951 GOUTEUX RAYNALD MV1 243   03:30:57 3,4 1143
1375 1018 HAPEL ALEXIS MV1 244   03:30:59 3,4 1144
1376 1491 PALENCIANO-WIDART CHLOÉ FJU 4   03:31:05 3,4 232
1377 228 BOCQUET ELODIE FES 19   03:31:06 3,4 233
1378 109 BASSOT MARC MV1 245 PRISON-BREAKER 03:31:26 3,4 1145
1379 227 BOCQUET LAURENT MV1 246 PRISON-BREAKER 03:31:28 3,4 1146
1380 699 DUMERY CINDY FSE 163   03:31:38 3,4 234
1381 867 GARNIER BENJAMIN MSE 766   03:32:19 3,4 1147
1382 1614 PONCET CELINE-MARIE FSE 164 LES JEAN- PEUPLU 03:32:20 3,4 235
1383 869 GARRET ANAIS FES 20 LES JEAN- PEUPLU 03:32:25 3,4 236
1384 2046 MALLORANT MANON FES 21   03:33:07 3,4 237
1385 2044 MALLORANT MARIE-PAULE FV1 42   03:33:10 3,4 238
1386 1818 SAUZE LUDOVIC MSE 767   03:34:12 3,4 1148
1387 834 GAGNAIRE PELIGRY MARIE FSE 165   03:34:29 3,4 239
1388 1469 NOTO ANTHONY MSE 768   03:34:44 3,4 1149
1389 1564 PETITBON AUDREY FSE 166   03:35:06 3,3 240
1390 310 BOYER STÉPHANE MSE 769   03:35:11 3,3 1150
1391 1649 PUAUD FABIEN MSE 770   03:35:13 3,3 1151
1392 311 BOYER PASCAL MV2 63   03:35:20 3,3 1152
1393 1727 ROCHON THOMAS MJU 16   03:35:24 3,3 1153
1394 1054 HUCHET STEPHANE MV1 247   03:35:28 3,3 1154
1395 309 BOYER AUDREY FSE 167   03:35:36 3,3 241
1396 1776 ROUX AUDE FSE 168   03:36:22 3,3 242
1397 1017 HANG VIRGINIE FSE 169   03:37:13 3,3 243
1398 99 BARNIER MARION FSE 170   03:37:37 3,3 244
1399 1362 MEDDAH JEAMILA FV1 43   03:38:30 3,3 245
1400 1361 MEDDAH LALLOUNA FV1 44   03:38:55 3,3 246
1401 1206 LE PONT CYRIL MSE 771   03:53:24 3,1 1155
1402 1856 SOLASSOL CHRISTOPHE MSE 772   04:00:00 3,0 1156
1403 1432 MOULART JULIE FES 22   04:00:02 3,0 247
1404 1346 MATHIEU MICKAEL MSE 773   04:00:04 3,0 1157
1405 2 ADJADJ CLÉMENT MES 0   00:00:00 ABD Abd
1406 5 AGUIAR MATTHIEU MSE 0   00:00:00 ABD Abd
1407 25 SOLER AMANDINE FSE 0   00:00:00 ABD Abd
1408 35 ANDRIANOELY VALERY MSE 0   00:00:00 ABD Abd
1409 49 ARTAUD FLORENT MES 0   00:00:00 ABD Abd
1410 56 AUBOIRON STEPHANE MSE 0   00:00:00 ABD Abd
1411 84 BALLAND JEAN PHILIPPE MSE 0 LES RANGERS DU NUCLÉAIRE 00:00:00 ABD Abd
1412 97 BARILLET DAVID MV1 0   00:00:00 ABD Abd
1413 104 BARRIERE VIRGINIE FJU 0   00:00:00 ABD Abd
1414 122 BAUFRE DOMINIQUE MV1 0   00:00:00 ABD Abd
1415 123 BAYLE PASCALE FV1 0   00:00:00 ABD Abd
1416 129 BEC JEREMY MSE 0 LES GARDOIS 00:00:00 ABD Abd
1417 147 BENITEZ JOSÉ MV1 0   00:00:00 ABD Abd
1418 158 BERGER DAVID MSE 0   00:00:00 ABD Abd
1419 165 BERNARD FLORENT MSE 0   00:00:00 ABD Abd
1420 172 BERRY ERIC MV1 0   00:00:00 ABD Abd
1421 173 BERTHEAU PIERRE MSE 0   00:00:00 ABD Abd
1422 183 BESSET DIDIER MV1 0   00:00:00 ABD Abd
1423 184 BESSET SANDRINE FV1 0   00:00:00 ABD Abd
1424 205 BIHAN MICHAEL MSE 0   00:00:00 ABD Abd
1425 214 BLANCHET DAVID MV1 0   00:00:00 ABD Abd
1426 241 BOKENKAMP ELISABETH FSE 0   00:00:00 ABD Abd
1427 246 BONDU AURÉLIE FSE 0 REGION AUVERGNE 2 00:00:00 ABD Abd
1428 251 BONNAMY THIERRY MV2 0   00:00:00 ABD Abd
1429 257 BONOCCHI ANTONIN MSE 0   00:00:00 ABD Abd
1430 258 BONY MARIE ANNE FSE 0   00:00:00 ABD Abd
1431 260 BOOS SYLVAIN MV1 0   00:00:00 ABD Abd
1432 274 BOUCHET JEAN PAUL MSE 0 LES PIOU PIOU 00:00:00 ABD Abd
1433 282 BOULLE DELPHINE FSE 0   00:00:00 ABD Abd
1434 293 BOURGEOIS FRANCK MSE 0 FREERIDE 00:00:00 ABD Abd
1435 298 BOURRAND GUILLAUME MSE 0 FREERIDE 00:00:00 ABD Abd
1436 313 BOYER PIERRE MES 0   00:00:00 ABD Abd
1437 324 BROUARD ANTHONY MSE 0   00:00:00 ABD Abd
1438 328 BROUILLAT CHARLÈNE FSE 0 LES RETARDATAIRES 00:00:00 ABD Abd
1439 336 BRUN CLÉMENT MSE 0   00:00:00 ABD Abd
1440 362 CAPITAINE GRÉGOIRE MSE 0   00:00:00 ABD Abd
1441 380 CATINOT FLORIAN MSE 0 CREVURE SQUAD 00:00:00 ABD Abd
1442 381 CATRIN JEAN-PHILIPPE MSE 0   00:00:00 ABD Abd
1443 386 CECCONE GREGORY MSE 0 FC NORD LIMAGNE 00:00:00 ABD Abd
1444 389 CERVELLIN COLINE FES 0   00:00:00 ABD Abd
1445 418 CHAPUIS LOIC MES 0   00:00:00 ABD Abd
1446 439 CHAUSSENDE CHRISTINE FV1 0   00:00:00 ABD Abd
1447 446 CHAUVET CHRISTOPHE MES 0   00:00:00 ABD Abd
1448 448 CHEBNACE PIERRE MSE 0   00:00:00 ABD Abd
1449 454 RAOUL MARTINS MV1 0   00:00:00 ABD Abd
1450 481 CLAUDE AURÉLIE FSE 0   00:00:00 ABD Abd
1451 494 COMBES THIERRY MV1 0   00:00:00 ABD Abd
1452 495 COMPAIN JÉRÉMY MSE 0   00:00:00 ABD Abd
1453 496 COMPIN STÉPHANE MSE 0   00:00:00 ABD Abd
1454 509 CORMERAIS JULIEN MSE 0   00:00:00 ABD Abd
1455 531 CREA SYLVAIN MSE 0   00:00:00 ABD Abd
1456 533 CRESPO BERNARD MSE 0   00:00:00 ABD Abd
1457 545 DA CUNHA VÉRONIQUE FSE 0   00:00:00 ABD Abd
1458 559 DARRÉ CAROLINE FSE 0   00:00:00 ABD Abd
1459 569 DE CONTRERAS PASCAL MV1 0   00:00:00 ABD Abd
1460 583 DEAT ELODIE FSE 0   00:00:00 ABD Abd
1461 593 DEL PUP SOLÈNE FSE 0   00:00:00 ABD Abd
1462 602 DELBOS THIERRY MSE 0   00:00:00 ABD Abd
1463 604 DELIGNY DAMIEN MSE 0   00:00:00 ABD Abd
1464 610 DELOIRE EMMANUEL MV1 0   00:00:00 ABD Abd
1465 615 DEMEDE NICOLAS MSE 0   00:00:00 ABD Abd
1466 621 DESCHAMPS DIDIER MV1 0   00:00:00 ABD Abd
1467 625 DESIAGE DAMIEN MSE 0   00:00:00 ABD Abd
1468 644 DHUMES ALEXANDRINE FSE 0   00:00:00 ABD Abd
1469 646 DIAT GUILLAUME MSE 0   00:00:00 ABD Abd
1470 716 DUVERT ANTOINE MES 0   00:00:00 ABD Abd
1471 723 EL ALAMI ADNANE MSE 0   00:00:00 ABD Abd
1472 726 EMY JEREMY MSE 0   00:00:00 ABD Abd
1473 733 ESCULIER CLÉMENT MSE 0   00:00:00 ABD Abd
1474 747 FALGOUX DAMIEN MSE 0   00:00:00 ABD Abd
1475 748 FALCON LILIAN MSE 0   00:00:00 ABD Abd
1476 749 FANGET AGNES FV1 0   00:00:00 ABD Abd
1477 752 FARGES LOIC MSE 0   00:00:00 ABD Abd
1478 755 FARRY FABRICE MSE 0   00:00:00 ABD Abd
1479 765 FAVY NORA FSE 0   00:00:00 ABD Abd
1480 779 FETIVEAUD KEVIN MSE 0   00:00:00 ABD Abd
1481 780 FIALON DOMINIQUE MV1 0 RÉGION AUVERGNE 1 00:00:00 ABD Abd
1482 792 FOLLEROT MELANIE FSE 0   00:00:00 ABD Abd
1483 801 FORTIN MICKAEL MSE 0   00:00:00 ABD Abd
1484 815 QUILLERET FRANCK MV1 0   00:00:00 ABD Abd
1485 845 GALINIER JULIEN MSE 0   00:00:00 ABD Abd
1486 846 GALLAND ADRIEN MSE 0   00:00:00 ABD Abd
1487 848 GALLAY MAXIME MSE 0   00:00:00 ABD Abd
1488 863 GARCIA SYLVIE FV1 0   00:00:00 ABD Abd
1489 865 GARECHE WILLY MV1 0   00:00:00 ABD Abd
1490 875 GAUJARD JULIEN MSE 0 POMPIERS DE MONTBRISON 00:00:00 ABD Abd
1491 899 GERBAULT VANESSA FSE 0   00:00:00 ABD Abd
1492 901 GERMAIN JEAN-BAPTISTE MSE 0   00:00:00 ABD Abd
1493 903 GERONDE LOÏC MSE 0   00:00:00 ABD Abd
1494 904 GERONDE CEDRIC MES 0   00:00:00 ABD Abd
1495 905 GERONDE MAXIME MSE 0   00:00:00 ABD Abd
1496 906 GESLAND DAVID MV1 0   00:00:00 ABD Abd
1497 920 GINDRE YANNICK MV1 0   00:00:00 ABD Abd
1498 921 GINDRE ANDREOLI LESLIE FSE 0   00:00:00 ABD Abd
1499 931 GOMEZ SÉBASTIEN MSE 0 LES DIEUX DU FOUR 00:00:00 ABD Abd
1500 932 GOMEZ JULIEN MSE 0   00:00:00 ABD Abd
1501 940 GONNET REMI MSE 0 LES LULUS 00:00:00 ABD Abd
1502 949 GOURDON FABRICE MSE 0 LES DIEUX DU FOUR 00:00:00 ABD Abd
1503 958 GRAND YANNICK MSE 0 MOOKIE 13 00:00:00 ABD Abd
1504 964 GREGOIRE CYRIL MSE 0   00:00:00 ABD Abd
1505 975 GRYMONPRE LAURENT MSE 0   00:00:00 ABD Abd
1506 984 GUERY CYRILLE MV1 0   00:00:00 ABD Abd
1507 991 GUIGNARD SERVANE FSE 0   00:00:00 ABD Abd
1508 997 GUILLON JULIEN MSE 0   00:00:00 ABD Abd
1509 1016 HAMMOUN KARIM MSE 0   00:00:00 ABD Abd
1510 1027 HELLUIN GEOFFREY MJU 0   00:00:00 ABD Abd
1511 1035 HERAULT SYLVIE FV1 0   00:00:00 ABD Abd
1512 1037 HERAULT FRANÇOIS - PIERRE MV2 0   00:00:00 ABD Abd
1513 1055 HUE CYRILLE M? 0   00:00:00 ABD Abd
1514 1062 HURION MAVERICK MJU 0   00:00:00 ABD Abd
1515 1072 JABOIN JB MSE 0   00:00:00 ABD Abd
1516 1081 JANETTA ERIC MV1 0   00:00:00 ABD Abd
1517 1086 JAUNET FRANCIS MV1 0   00:00:00 ABD Abd
1518 1098 JOBERT JEAN PAUL MV1 0   00:00:00 ABD Abd
1519 1114 JUGE MARION FSE 0 REGION AUVERGNE 2 00:00:00 ABD Abd
1520 1130 KONINCKX MARIANNE FSE 0   00:00:00 ABD Abd
1521 1133 KRUK REMY MSE 0 LES RAMBOS 00:00:00 ABD Abd
1522 1137 LABORY HENRI MV1 0   00:00:00 ABD Abd
1523 1155 LACROIX VINCENT MSE 0   00:00:00 ABD Abd
1524 1156 LADENT CAROLINE FES 0   00:00:00 ABD Abd
1525 1188 LASKOWSKI MATHIEU MSE 0   00:00:00 ABD Abd
1526 1196 LAVERGNE SONIA FSE 0   00:00:00 ABD Abd
1527 1198 LAVIGNE EMMANUEL MSE 0   00:00:00 ABD Abd
1528 1209 LEBAS OPHELIE FSE 0   00:00:00 ABD Abd
1529 1236 LENAERS LAURENT MSE 0   00:00:00 ABD Abd
1530 1239 LEPLUS SYLVAIN MSE 0   00:00:00 ABD Abd
1531 1245 LEVRAY ALEXIS MSE 0   00:00:00 ABD Abd
1532 1280 LUIZ CHRISTOPHE MV1 0   00:00:00 ABD Abd
1533 1281 LUPION PHILIPPE MV1 0 BRUFIDO 00:00:00 ABD Abd
1534 1283 MACHADO MARC MSE 0   00:00:00 ABD Abd
1535 1292 MAIOTO ANTHONY MES 0   00:00:00 ABD Abd
1536 1294 MAISTRELLO GAETAN MSE 0   00:00:00 ABD Abd
1537 1296 MAITRE FLORIAN MSE 0   00:00:00 ABD Abd
1538 1303 MANGE JEAN-PHILIPPE MV1 0   00:00:00 ABD Abd
1539 1313 MARGIELA VALENTIN MJU 0   00:00:00 ABD Abd
1540 1321 MARQUISSEAU MARIELLE FV1 0 LES GLANDUS 00:00:00 ABD Abd
1541 1327 MARTIN FLORENCE FV1 0 LES BOMBES À EAU 00:00:00 ABD Abd
1542 1336 MARTINEZ MICHAEL MSE 0   00:00:00 ABD Abd
1543 1338 MARTINOT ARTHUR MJU 0   00:00:00 ABD Abd
1544 1342 MASSON WILLIAM MV1 0   00:00:00 ABD Abd
1545 1356 MAYNAUD LUCAS MSE 0   00:00:00 ABD Abd
1546 1358 MEALLET MATHIEU MSE 0   00:00:00 ABD Abd
1547 1363 MEDYNSKA JEAN-LOUIS MV1 0   00:00:00 ABD Abd
1548 1387 MICHEL FRANCK MV1 0 LES TIPULES 00:00:00 ABD Abd
1549 1394 MILLOTTE FREDERIC MSE 0 LES OIES SAUVAGES 00:00:00 ABD Abd
1550 1395 MIROIR JORDAN MSE 0 CREVURE SQUAD 00:00:00 ABD Abd
1551 1396 MIROIR SOLÈNE FSE 0 CREVURE SQUAD 00:00:00 ABD Abd
1552 1408 MONTALBAN SEBASTIEN MSE 0   00:00:00 ABD Abd
1553 1417 MORANGE CYRIL MSE 0   00:00:00 ABD Abd
1554 1421 MOREAU GUILLAUME MSE 0 LES PIOU PIOU 00:00:00 ABD Abd
1555 1436 MOULY GUILLAUME MES 0   00:00:00 ABD Abd
1556 1448 NAVARON CHRISTOPHE MV1 0 LES ZANS CULEZ 00:00:00 ABD Abd
1557 1474 OLIVEIRA FREDERIC MV1 0   00:00:00 ABD Abd
1558 1477 OLLION VINCENT MSE 0   00:00:00 ABD Abd
1559 1487 PAILLARD NOÉMIE FSE 0   00:00:00 ABD Abd
1560 1489 PAILLOUX LAURENT MV2 0   00:00:00 ABD Abd
1561 1494 PAMMACHIUS THOMAS MSE 0   00:00:00 ABD Abd
1562 1509 PASQUIER VINCENT MSE 0   00:00:00 ABD Abd
1563 1514 PAULA SÉBASTIEN MSE 0   00:00:00 ABD Abd
1564 1526 PELERIN JEAN MARC MV1 0   00:00:00 ABD Abd
1565 1543 PERRETON BLAISE MSE 0   00:00:00 ABD Abd
1566 1553 WITHNEL LINSAY FSE 0   00:00:00 ABD Abd
1567 1554 PERRUCHE KARINE FSE 0   00:00:00 ABD Abd
1568 1560 PETIT KEVIN MES 0   00:00:00 ABD Abd
1569 1566 PETOIN THOMAS MSE 0   00:00:00 ABD Abd
1570 1572 PEYRONNET MATTHIEU MSE 0   00:00:00 ABD Abd
1571 1611 POIROT FRANCOIS MSE 0   00:00:00 ABD Abd
1572 1612 POLIUS JEAN CLAUDE MV1 0   00:00:00 ABD Abd
1573 1631 POUTIGNAT VINCENT MSE 0   00:00:00 ABD Abd
1574 1636 POZZATI NICOLAS MSE 0   00:00:00 ABD Abd
1575 1643 PRIOUX LOÏC MSE 0   00:00:00 ABD Abd
1576 1651 PUECH RÉMI MSE 0   00:00:00 ABD Abd
1577 1665 RACAT AURÉLIEN MJU 0 LES POUSSIN DE LA BUCHE 00:00:00 ABD Abd
1578 1676 RAUZET SANDRA FSE 0   00:00:00 ABD Abd
1579 1686 REMY JEAN-BAPTISTE MSE 0   00:00:00 ABD Abd
1580 1694 REY CELINE FSE 0 RIO DE JANEIRO 00:00:00 ABD Abd
1581 1703 RIFFAUD DOMINIQUE MES 0   00:00:00 ABD Abd
1582 1717 ROBERT ALEXANDRE MSE 0   00:00:00 ABD Abd
1583 1731 RODRIGUES NICOLAS MSE 0   00:00:00 ABD Abd
1584 1738 ROLLAND RENAUD MSE 0   00:00:00 ABD Abd
1585 1740 ROMAIN ERIC MV2 0   00:00:00 ABD Abd
1586 1779 ROUX JEAN-YVES MV1 0   00:00:00 ABD Abd
1587 1782 ROVELLI MAXIME MSE 0   00:00:00 ABD Abd
1588 1792 SABY SANDRA FSE 0 LES PIPELETTES DE PLAUZAT 00:00:00 ABD Abd
1589 1794 SADOURNY JEROME MV1 0   00:00:00 ABD Abd
1590 1817 SAUVÊTRE JONATHAN MSE 0   00:00:00 ABD Abd
1591 1820 SAVINEL GUILLAUME MSE 0 FREERIDE 00:00:00 ABD Abd
1592 1849 SIMON NORA FV1 0   00:00:00 ABD Abd
1593 1850 SLIM DORA FSE 0   00:00:00 ABD Abd
1594 1855 SOBIES XAVIER MV1 0   00:00:00 ABD Abd
1595 1858 SOLEILLANT OLIVIER MES 0   00:00:00 ABD Abd
1596 1877 TALBOT FRANCOIS MSE 0   00:00:00 ABD Abd
1597 1882 TARDY ELVIS MSE 0   00:00:00 ABD Abd
1598 1883 TARRERIAS ANAÏS FSE 0   00:00:00 ABD Abd
1599 1888 TEIXEIRA BASTIEN MES 0   00:00:00 ABD Abd
1600 1889 TEIXEIRA STEPHANE MSE 0   00:00:00 ABD Abd
1601 1891 TEIXEIRA JULIEN MJU 0   00:00:00 ABD Abd
1602 1893 TEIXEIRA MICKAEL MSE 0   00:00:00 ABD Abd
1603 1905 THIAUDIÈRE GUILLAUME MES 0   00:00:00 ABD Abd
1604 1909 THOINET RÉMY MSE 0   00:00:00 ABD Abd
1605 1931 TRACOL DENIS MV2 0   00:00:00 ABD Abd
1606 1935 TREMOULET ARNAUD MSE 0   00:00:00 ABD Abd
1607 1939 TRIPHON FLORENCE FSE 0   00:00:00 ABD Abd
1608 1947 TROUVÉ OLIVIER MSE 0   00:00:00 ABD Abd
1609 1957 VAGO ISABELLE FV1 0 LES DINDES 00:00:00 ABD Abd
1610 1958 VALADE REMI MSE 0   00:00:00 ABD Abd
1611 1975 VELLA GEORGES MV3 0   00:00:00 ABD Abd
1612 1983 VERGNAUD FREDERIC MV1 0   00:00:00 ABD Abd
1613 1987 VEYSSIERE PATRICE MSE 0   00:00:00 ABD Abd
1614 1994 VIDAL SEBASTIEN MV1 0 BORA BORA 63 2 00:00:00 ABD Abd
1615 1996 VIDALINC VIVIANE FV1 0   00:00:00 ABD Abd
1616 1997 VIGNEAUX SIMON MSE 0   00:00:00 ABD Abd
1617 2005 MOREL PIERRE MSE 0   00:00:00 ABD Abd
1618 2012 VIODRIN JEROME MSE 0   00:00:00 ABD Abd
1619 2025 WEIBEL GAETAN MSE 0   00:00:00 ABD Abd
1620 2038 DKN 1 MSE 0   00:00:00 ABD Abd
1621 2039 DKN 2 MSE 0   00:00:00 ABD Abd
1622 2040 DKN 3 MSE 0   00:00:00 ABD Abd
1623 1808 SANSELME MARC MES 0   01:12:06 ABD Abd
1624 1910 THOLLON THIERRY MV1 0   01:12:15 ABD Abd
1625 360 CANTAT EVELYNE FV1 0 1 TRUC A 3 01:13:20 ABD Abd
1626 1904 THEVENOT SANDRINE FV1 0   01:14:48 ABD Abd
1627 146 BENET FABIEN MSE 0   01:15:05 ABD Abd
1628 530 CRAYTON OLIVIER MV1 0   01:32:33 ABD Abd
1629 1369 MENDES JIMMY MES 0   02:04:30 ABD Abd